Wetterdaten: aktuell Freitag, 18.09.2020 19:24
Datum Zeit Temp. -10cm Temp. 5cm Temp. 2m Feuchte 2m Luftdruck Regen Wind Richtung Richtung Taupunkt Windchill Windben
18.09.2020 19:24 19,6 C 9,4 C 13,1 C 61 % 1022,1 hPa 0,0 l/m 0,0 km/h (0 Bft) O-SO 112 5,8 C 13,1 C 0,0 km/h (0 Bft)
18.09.2020 19:22 19,6 C 9,5 C 13,2 C 61 % 1022,1 hPa 0,0 l/m 0,0 km/h (0 Bft) O-SO 112 5,8 C 13,2 C 0,0 km/h (0 Bft)
18.09.2020 19:20 19,6 C 9,7 C 13,3 C 61 % 1022,1 hPa 0,0 l/m 0,0 km/h (0 Bft) O-SO 112 5,9 C 13,3 C 0,0 km/h (0 Bft)
18.09.2020 19:18 19,6 C 9,8 C 13,4 C 61 % 1022,1 hPa 0,0 l/m 0,0 km/h (0 Bft) O-SO 112 6,0 C 13,4 C 0,0 km/h (0 Bft)
18.09.2020 19:16 19,6 C 9,7 C 13,6 C 61 % 1022,1 hPa 0,0 l/m 0,0 km/h (0 Bft) O-SO 112 6,2 C 13,6 C 0,0 km/h (0 Bft)
18.09.2020 19:14 19,6 C 9,9 C 13,6 C 61 % 1022,1 hPa 0,0 l/m 0,0 km/h (0 Bft) O-SO 112 6,2 C 13,6 C 0,0 km/h (0 Bft)
18.09.2020 19:12 19,6 C 9,9 C 13,7 C 61 % 1022,1 hPa 0,0 l/m 0,0 km/h (0 Bft) O-SO 112 6,3 C 13,7 C 0,0 km/h (0 Bft)
18.09.2020 19:10 19,6 C 10,0 C 13,8 C 60 % 1022,1 hPa 0,0 l/m 0,0 km/h (0 Bft) O-SO 112 6,2 C 13,8 C 0,0 km/h (0 Bft)
18.09.2020 19:08 19,7 C 10,0 C 13,9 C 60 % 1022,1 hPa 0,0 l/m 0,0 km/h (0 Bft) O-SO 112 6,3 C 13,9 C 0,0 km/h (0 Bft)
18.09.2020 19:06 19,7 C 10,1 C 14,1 C 60 % 1022,1 hPa 0,0 l/m 0,0 km/h (0 Bft) O-SO 112 6,5 C 14,1 C 0,0 km/h (0 Bft)
18.09.2020 19:04 19,7 C 10,3 C 14,2 C 60 % 1022,1 hPa 0,0 l/m 0,0 km/h (0 Bft) O-SO 112 6,5 C 14,2 C 0,0 km/h (0 Bft)
18.09.2020 19:02 19,7 C 10,5 C 14,3 C 60 % 1022,1 hPa 0,0 l/m 0,0 km/h (0 Bft) O-SO 112 6,6 C 14,3 C 0,0 km/h (0 Bft)
18.09.2020 19:00 19,7 C 10,4 C 14,4 C 60 % 1022,0 hPa 0,0 l/m 0,0 km/h (0 Bft) O-SO 112 6,7 C 14,4 C 0,0 km/h (0 Bft)
18.09.2020 18:58 19,7 C 10,5 C 14,5 C 60 % 1022,0 hPa 0,0 l/m 0,0 km/h (0 Bft) O-SO 112 6,8 C 14,5 C 0,0 km/h (0 Bft)
18.09.2020 18:56 19,7 C 10,6 C 14,5 C 59 % 1022,0 hPa 0,0 l/m 0,0 km/h (0 Bft) O-SO 112 6,6 C 14,5 C 0,0 km/h (0 Bft)
18.09.2020 18:54 19,7 C 10,7 C 14,7 C 59 % 1022,0 hPa 0,0 l/m 0,0 km/h (0 Bft) O-SO 112 6,8 C 14,7 C 0,0 km/h (0 Bft)
18.09.2020 18:52 19,7 C 10,9 C 14,7 C 59 % 1022,0 hPa 0,0 l/m 0,0 km/h (0 Bft) O-SO 112 6,8 C 14,7 C 0,0 km/h (0 Bft)
18.09.2020 18:50 19,7 C 11,0 C 14,8 C 59 % 1022,0 hPa 0,0 l/m 0,0 km/h (0 Bft) O-SO 112 6,9 C 14,8 C 0,0 km/h (0 Bft)
18.09.2020 18:48 19,7 C 11,0 C 14,9 C 59 % 1022,0 hPa 0,0 l/m 0,0 km/h (0 Bft) O-SO 112 7,0 C 14,9 C 0,0 km/h (0 Bft)
18.09.2020 18:46 19,7 C 11,1 C 14,9 C 58 % 1022,0 hPa 0,0 l/m 0,0 km/h (0 Bft) O-SO 112 6,7 C 14,9 C 0,0 km/h (0 Bft)
18.09.2020 18:44 19,7 C 11,3 C 14,9 C 58 % 1022,0 hPa 0,0 l/m 0,0 km/h (0 Bft) O-SO 112 6,7 C 14,9 C 0,0 km/h (0 Bft)
18.09.2020 18:42 19,7 C 11,3 C 15,0 C 58 % 1022,0 hPa 0,0 l/m 0,0 km/h (0 Bft) O-SO 112 6,8 C 15,0 C 0,0 km/h (0 Bft)
18.09.2020 18:40 19,7 C 11,5 C 15,1 C 58 % 1022,0 hPa 0,0 l/m 0,0 km/h (0 Bft) O-SO 112 6,9 C 15,1 C 0,0 km/h (0 Bft)
18.09.2020 18:38 19,7 C 11,6 C 15,2 C 57 % 1022,0 hPa 0,0 l/m 0,0 km/h (0 Bft) O-SO 112 6,7 C 15,2 C 0,0 km/h (0 Bft)
18.09.2020 18:36 19,7 C 11,8 C 15,3 C 57 % 1022,0 hPa 0,0 l/m 0,0 km/h (0 Bft) O-SO 112 6,8 C 15,3 C 0,0 km/h (0 Bft)
18.09.2020 18:34 19,7 C 12,1 C 15,4 C 57 % 1022,0 hPa 0,0 l/m 0,0 km/h (0 Bft) O-SO 112 6,9 C 15,4 C 0,0 km/h (0 Bft)
18.09.2020 18:32 19,7 C 12,3 C 15,5 C 57 % 1022,0 hPa 0,0 l/m 0,0 km/h (0 Bft) O-SO 112 7,0 C 15,5 C 0,0 km/h (0 Bft)
18.09.2020 18:30 19,8 C 12,3 C 15,6 C 56 % 1022,0 hPa 0,0 l/m 0,0 km/h (0 Bft) O-SO 112 6,9 C 15,6 C 0,0 km/h (0 Bft)
18.09.2020 18:28 19,8 C 12,6 C 15,7 C 56 % 1022,0 hPa 0,0 l/m 0,0 km/h (0 Bft) O-SO 112 6,9 C 15,7 C 0,0 km/h (0 Bft)
18.09.2020 18:26 19,8 C 12,6 C 15,8 C 56 % 1022,0 hPa 0,0 l/m 0,0 km/h (0 Bft) O-SO 112 7,0 C 15,8 C 0,0 km/h (0 Bft)
18.09.2020 18:24 19,8 C 12,7 C 15,8 C 55 % 1022,0 hPa 0,0 l/m 0,0 km/h (0 Bft) O-SO 112 6,8 C 15,8 C 0,0 km/h (0 Bft)
18.09.2020 18:22 19,8 C 12,8 C 16,0 C 54 % 1022,0 hPa 0,0 l/m 0,0 km/h (0 Bft) O-SO 112 6,7 C 16,0 C 0,0 km/h (0 Bft)
18.09.2020 18:20 19,8 C 12,9 C 16,2 C 54 % 1021,9 hPa 0,0 l/m 0,0 km/h (0 Bft) O-SO 112 6,9 C 16,2 C 0,0 km/h (0 Bft)
18.09.2020 18:18 19,8 C 13,1 C 16,3 C 52 % 1021,9 hPa 0,0 l/m 0,0 km/h (0 Bft) O-SO 112 6,4 C 16,3 C 0,0 km/h (0 Bft)
18.09.2020 18:16 19,8 C 13,2 C 16,4 C 52 % 1021,9 hPa 0,0 l/m 0,0 km/h (0 Bft) O-SO 112 6,5 C 16,4 C 0,0 km/h (0 Bft)
18.09.2020 18:14 19,8 C 13,4 C 16,5 C 52 % 1021,9 hPa 0,0 l/m 0,0 km/h (0 Bft) O-SO 112 6,6 C 16,5 C 0,0 km/h (0 Bft)
18.09.2020 18:12 19,8 C 13,4 C 16,7 C 52 % 1021,9 hPa 0,0 l/m 0,0 km/h (0 Bft) O-SO 112 6,8 C 16,7 C 0,0 km/h (0 Bft)
18.09.2020 18:10 19,9 C 13,5 C 16,9 C 51 % 1021,9 hPa 0,0 l/m 0,0 km/h (0 Bft) O-SO 112 6,7 C 16,9 C 0,0 km/h (0 Bft)
18.09.2020 18:08 19,9 C 14,0 C 17,0 C 51 % 1021,9 hPa 0,0 l/m 0,0 km/h (0 Bft) O-SO 112 6,8 C 17,0 C 0,0 km/h (0 Bft)
18.09.2020 18:06 19,9 C 14,1 C 17,0 C 51 % 1021,9 hPa 0,0 l/m 0,0 km/h (0 Bft) O-SO 112 6,8 C 17,0 C 0,0 km/h (0 Bft)
18.09.2020 18:04 19,9 C 14,2 C 17,1 C 51 % 1021,9 hPa 0,0 l/m 0,0 km/h (0 Bft) O-SO 112 6,9 C 17,1 C 0,0 km/h (0 Bft)
18.09.2020 18:02 19,9 C 14,3 C 17,1 C 51 % 1021,9 hPa 0,0 l/m 0,0 km/h (0 Bft) O-NO 67 6,9 C 17,1 C 0,0 km/h (0 Bft)
18.09.2020 18:00 19,9 C 14,2 C 17,1 C 50 % 1021,9 hPa 0,0 l/m 0,0 km/h (0 Bft) SO 135 6,6 C 17,1 C 0,0 km/h (0 Bft)
18.09.2020 17:58 19,9 C 14,3 C 17,4 C 50 % 1021,9 hPa 0,0 l/m 0,0 km/h (0 Bft) SO 135 6,9 C 17,4 C 0,0 km/h (0 Bft)
18.09.2020 17:56 19,9 C 14,6 C 17,6 C 50 % 1021,9 hPa 0,0 l/m 0,0 km/h (0 Bft) N-NO 22 7,1 C 17,6 C 0,0 km/h (0 Bft)
18.09.2020 17:54 19,9 C 14,6 C 17,7 C 49 % 1021,9 hPa 0,0 l/m 0,0 km/h (0 Bft) N-NO 22 6,9 C 17,7 C 0,0 km/h (0 Bft)
18.09.2020 17:52 19,9 C 14,8 C 17,7 C 49 % 1021,9 hPa 0,0 l/m 0,0 km/h (0 Bft) N-NO 22 6,9 C 17,7 C 0,0 km/h (0 Bft)
18.09.2020 17:50 19,8 C 14,9 C 17,8 C 49 % 1021,9 hPa 0,0 l/m 0,2 km/h (0 Bft) N-NO 22 6,9 C 17,8 C 0,0 km/h (0 Bft)
18.09.2020 17:48 19,8 C 14,9 C 17,9 C 48 % 1021,9 hPa 0,0 l/m 0,2 km/h (0 Bft) N-NO 22 6,7 C 17,9 C 0,0 km/h (0 Bft)
18.09.2020 17:46 19,8 C 15,1 C 18,0 C 48 % 1021,9 hPa 0,0 l/m 0,2 km/h (0 Bft) O-NO 67 6,8 C 18,0 C 0,0 km/h (0 Bft)
18.09.2020 17:44 19,8 C 15,4 C 18,0 C 48 % 1021,9 hPa 0,0 l/m 0,0 km/h (0 Bft) O-NO 67 6,8 C 18,0 C 0,0 km/h (0 Bft)
18.09.2020 17:42 19,9 C 15,3 C 18,1 C 47 % 1021,9 hPa 0,0 l/m 0,2 km/h (0 Bft) NO 45 6,6 C 18,1 C 0,0 km/h (0 Bft)
18.09.2020 17:40 19,9 C 15,3 C 18,3 C 47 % 1022,1 hPa 0,0 l/m 0,2 km/h (0 Bft) S 180 6,8 C 18,3 C 0,0 km/h (0 Bft)
18.09.2020 17:38 19,9 C 15,5 C 18,3 C 47 % 1022,1 hPa 0,0 l/m 0,5 km/h (0 Bft) SO 135 6,8 C 18,3 C 0,0 km/h (0 Bft)
18.09.2020 17:36 19,9 C 15,4 C 18,4 C 47 % 1022,1 hPa 0,0 l/m 1,0 km/h (0 Bft) N-NW 337 6,9 C 18,4 C 0,0 km/h (0 Bft)
18.09.2020 17:34 19,9 C 15,9 C 18,5 C 47 % 1022,1 hPa 0,0 l/m 1,0 km/h (0 Bft) O-SO 112 7,0 C 18,5 C 0,0 km/h (0 Bft)
18.09.2020 17:32 19,9 C 16,1 C 18,7 C 47 % 1022,1 hPa 0,0 l/m 1,0 km/h (0 Bft) O-SO 112 7,2 C 18,7 C 4,8 km/h (1 Bft)
18.09.2020 17:30 19,9 C 16,1 C 18,7 C 47 % 1022,1 hPa 0,0 l/m 1,0 km/h (0 Bft) S 180 7,2 C 18,7 C 5,1 km/h (1 Bft)
18.09.2020 17:28 19,9 C 16,1 C 18,8 C 47 % 1022,1 hPa 0,0 l/m 0,7 km/h (0 Bft) O-SO 112 7,2 C 18,8 C 5,1 km/h (1 Bft)
18.09.2020 17:26 19,9 C 16,3 C 18,8 C 47 % 1022,1 hPa 0,0 l/m 0,2 km/h (0 Bft) SO 135 7,2 C 18,8 C 3,9 km/h (1 Bft)
18.09.2020 17:24 19,9 C 16,5 C 19,1 C 47 % 1022,1 hPa 0,0 l/m 0,2 km/h (0 Bft) O-NO 67 7,5 C 19,1 C 0,0 km/h (0 Bft)
18.09.2020 17:22 19,9 C 16,4 C 19,0 C 47 % 1022,1 hPa 0,0 l/m 0,2 km/h (0 Bft) O-NO 67 7,4 C 19,0 C 3,4 km/h (1 Bft)
18.09.2020 17:20 19,9 C 16,6 C 19,1 C 47 % 1022,2 hPa 0,0 l/m 0,2 km/h (0 Bft) O-SO 112 7,5 C 19,1 C 3,4 km/h (1 Bft)
18.09.2020 17:18 19,9 C 16,8 C 19,2 C 47 % 1022,2 hPa 0,0 l/m 0,5 km/h (0 Bft) N-NO 22 7,6 C 19,2 C 0,0 km/h (0 Bft)
18.09.2020 17:16 19,9 C 17,4 C 19,2 C 46 % 1022,2 hPa 0,0 l/m 0,5 km/h (0 Bft) N-NW 337 7,3 C 19,2 C 0,0 km/h (0 Bft)
18.09.2020 17:14 19,9 C 18,1 C 19,3 C 46 % 1022,2 hPa 0,0 l/m 0,5 km/h (0 Bft) NO 45 7,4 C 19,3 C 3,1 km/h (1 Bft)
18.09.2020 17:12 19,9 C 18,4 C 19,3 C 46 % 1022,2 hPa 0,0 l/m 0,5 km/h (0 Bft) O 90 7,4 C 19,3 C 3,1 km/h (1 Bft)
18.09.2020 17:10 19,9 C 18,4 C 19,5 C 47 % 1022,2 hPa 0,0 l/m 0,5 km/h (0 Bft) O 90 7,9 C 19,5 C 3,4 km/h (1 Bft)
18.09.2020 17:08 19,9 C 18,8 C 19,5 C 47 % 1022,2 hPa 0,0 l/m 0,7 km/h (0 Bft) S-SO 157 7,9 C 19,5 C 3,4 km/h (1 Bft)
18.09.2020 17:06 19,9 C 18,7 C 19,5 C 46 % 1022,2 hPa 0,0 l/m 0,5 km/h (0 Bft) O-SO 112 7,6 C 19,5 C 0,0 km/h (0 Bft)
18.09.2020 17:04 19,9 C 18,4 C 19,6 C 46 % 1022,2 hPa 0,0 l/m 0,5 km/h (0 Bft) O-NO 67 7,7 C 19,6 C 0,0 km/h (0 Bft)
18.09.2020 17:02 19,9 C 17,9 C 19,6 C 46 % 1022,2 hPa 0,0 l/m 0,7 km/h (0 Bft) O-SO 112 7,7 C 19,6 C 0,0 km/h (0 Bft)
18.09.2020 17:00 19,9 C 17,8 C 19,7 C 47 % 1022,4 hPa 0,0 l/m 1,4 km/h (1 Bft) N-NO 22 8,1 C 19,7 C 0,0 km/h (0 Bft)
18.09.2020 16:58 19,9 C 17,6 C 19,6 C 46 % 1022,4 hPa 0,0 l/m 1,4 km/h (1 Bft) O 90 7,7 C 19,6 C 3,1 km/h (1 Bft)
18.09.2020 16:56 19,9 C 17,7 C 19,6 C 46 % 1022,4 hPa 0,0 l/m 1,4 km/h (1 Bft) O-NO 67 7,7 C 19,6 C 3,1 km/h (1 Bft)
18.09.2020 16:54 19,9 C 18,3 C 19,7 C 46 % 1022,4 hPa 0,0 l/m 1,4 km/h (1 Bft) O-SO 112 7,8 C 19,7 C 6,5 km/h (2 Bft)
18.09.2020 16:52 19,9 C 18,7 C 19,8 C 46 % 1022,4 hPa 0,0 l/m 1,2 km/h (1 Bft) O 90 7,8 C 19,8 C 6,5 km/h (2 Bft)
18.09.2020 16:50 19,9 C 18,4 C 19,8 C 46 % 1022,4 hPa 0,0 l/m 1,2 km/h (1 Bft) O-SO 112 7,8 C 19,8 C 4,6 km/h (1 Bft)
18.09.2020 16:48 19,9 C 18,4 C 19,9 C 46 % 1022,4 hPa 0,0 l/m 0,7 km/h (0 Bft) O-NO 67 7,9 C 19,9 C 5,1 km/h (1 Bft)
18.09.2020 16:46 19,9 C 18,7 C 19,9 C 46 % 1022,4 hPa 0,0 l/m 0,7 km/h (0 Bft) SO 135 7,9 C 19,9 C 5,1 km/h (1 Bft)
18.09.2020 16:44 19,9 C 18,9 C 19,9 C 45 % 1022,4 hPa 0,0 l/m 0,5 km/h (0 Bft) NO 45 7,6 C 19,9 C 0,0 km/h (0 Bft)
18.09.2020 16:42 19,9 C 19,3 C 20,0 C 46 % 1022,4 hPa 0,0 l/m 0,7 km/h (0 Bft) N 360 8,0 C 20,0 C 3,9 km/h (1 Bft)
18.09.2020 16:40 19,9 C 20,5 C 20,0 C 46 % 1022,4 hPa 0,0 l/m 0,5 km/h (0 Bft) O-NO 67 8,0 C 20,0 C 3,9 km/h (1 Bft)
18.09.2020 16:38 19,9 C 21,0 C 20,0 C 45 % 1022,4 hPa 0,0 l/m 0,2 km/h (0 Bft) O-NO 67 7,7 C 20,0 C 0,0 km/h (0 Bft)
18.09.2020 16:36 19,9 C 21,7 C 20,2 C 45 % 1022,4 hPa 0,0 l/m 0,2 km/h (0 Bft) W-SW 247 7,9 C 20,2 C 0,0 km/h (0 Bft)
18.09.2020 16:34 19,9 C 22,1 C 20,1 C 45 % 1022,4 hPa 0,0 l/m 0,2 km/h (0 Bft) N-NO 22 7,8 C 20,1 C 0,0 km/h (0 Bft)
18.09.2020 16:32 19,9 C 21,1 C 20,0 C 45 % 1022,4 hPa 0,0 l/m 1,0 km/h (0 Bft) SO 135 7,7 C 20,0 C 0,0 km/h (0 Bft)
18.09.2020 16:30 19,9 C 20,6 C 20,1 C 46 % 1022,4 hPa 0,0 l/m 1,4 km/h (1 Bft) N-NW 337 8,1 C 20,1 C 0,0 km/h (0 Bft)
18.09.2020 16:28 19,9 C 19,7 C 20,2 C 46 % 1022,4 hPa 0,0 l/m 1,9 km/h (1 Bft) N-NO 22 8,2 C 20,2 C 2,4 km/h (1 Bft)
18.09.2020 16:26 19,9 C 19,0 C 20,0 C 45 % 1022,4 hPa 0,0 l/m 1,9 km/h (1 Bft) NO 45 7,7 C 20,0 C 2,4 km/h (1 Bft)
18.09.2020 16:24 19,9 C 19,1 C 20,1 C 45 % 1022,4 hPa 0,0 l/m 1,9 km/h (1 Bft) NW 315 7,8 C 20,1 C 4,8 km/h (1 Bft)
18.09.2020 16:22 19,9 C 19,3 C 20,1 C 45 % 1022,4 hPa 0,0 l/m 1,4 km/h (1 Bft) O-SO 112 7,8 C 20,1 C 5,6 km/h (1 Bft)
18.09.2020 16:20 19,9 C 20,0 C 20,1 C 45 % 1022,4 hPa 0,0 l/m 0,7 km/h (0 Bft) SO 135 7,8 C 20,1 C 5,6 km/h (1 Bft)
18.09.2020 16:18 19,9 C 20,2 C 20,1 C 45 % 1022,4 hPa 0,0 l/m 0,7 km/h (0 Bft) O-SO 112 7,8 C 20,1 C 3,4 km/h (1 Bft)
18.09.2020 16:16 19,9 C 20,1 C 20,1 C 45 % 1022,4 hPa 0,0 l/m 1,2 km/h (1 Bft) SO 135 7,8 C 20,1 C 0,0 km/h (0 Bft)
18.09.2020 16:14 19,8 C 19,9 C 20,2 C 46 % 1022,4 hPa 0,0 l/m 1,2 km/h (1 Bft) N-NO 22 8,2 C 20,2 C 0,0 km/h (0 Bft)
18.09.2020 16:12 19,8 C 20,5 C 20,2 C 46 % 1022,4 hPa 0,0 l/m 1,2 km/h (1 Bft) O-NO 67 8,2 C 20,2 C 0,0 km/h (0 Bft)
18.09.2020 16:10 19,8 C 20,2 C 20,3 C 46 % 1022,4 hPa 0,0 l/m 1,4 km/h (1 Bft) NO 45 8,3 C 20,3 C 4,6 km/h (1 Bft)
18.09.2020 16:08 19,8 C 19,6 C 20,3 C 46 % 1022,4 hPa 0,0 l/m 1,4 km/h (1 Bft) O-SO 112 8,3 C 20,3 C 4,6 km/h (1 Bft)
18.09.2020 16:06 19,8 C 19,6 C 20,3 C 46 % 1022,4 hPa 0,0 l/m 1,0 km/h (0 Bft) O-NO 67 8,3 C 20,3 C 4,3 km/h (1 Bft)
18.09.2020 16:04 19,8 C 20,4 C 20,3 C 46 % 1022,4 hPa 0,0 l/m 0,5 km/h (0 Bft) O-SO 112 8,3 C 20,3 C 0,0 km/h (0 Bft)
18.09.2020 16:02 19,8 C 21,6 C 20,3 C 46 % 1022,4 hPa 0,0 l/m 0,5 km/h (0 Bft) NW 315 8,3 C 20,3 C 0,0 km/h (0 Bft)
18.09.2020 16:00 19,8 C 22,1 C 20,1 C 46 % 1022,6 hPa 0,0 l/m 1,0 km/h (0 Bft) O 90 8,1 C 20,1 C 0,0 km/h (0 Bft)
18.09.2020 15:58 19,8 C 22,5 C 20,3 C 46 % 1022,6 hPa 0,0 l/m 1,9 km/h (1 Bft) O-SO 112 8,3 C 20,3 C 4,6 km/h (1 Bft)
18.09.2020 15:56 19,8 C 21,9 C 20,2 C 46 % 1022,6 hPa 0,0 l/m 2,9 km/h (1 Bft) O-NO 67 8,2 C 20,2 C 4,6 km/h (1 Bft)
18.09.2020 15:54 19,8 C 20,8 C 20,3 C 46 % 1022,6 hPa 0,0 l/m 2,7 km/h (1 Bft) O-NO 67 8,3 C 20,3 C 0,0 km/h (0 Bft)
18.09.2020 15:52 19,8 C 19,6 C 20,2 C 47 % 1022,6 hPa 0,0 l/m 2,7 km/h (1 Bft) N-NO 22 8,5 C 20,2 C 4,8 km/h (1 Bft)
18.09.2020 15:50 19,8 C 19,3 C 20,2 C 47 % 1022,6 hPa 0,0 l/m 2,4 km/h (1 Bft) O-SO 112 8,5 C 20,2 C 8,4 km/h (2 Bft)
18.09.2020 15:48 19,7 C 19,5 C 20,2 C 47 % 1022,6 hPa 0,0 l/m 1,4 km/h (1 Bft) O 90 8,5 C 20,2 C 8,4 km/h (2 Bft)
18.09.2020 15:46 19,7 C 20,4 C 20,2 C 46 % 1022,6 hPa 0,0 l/m 0,7 km/h (0 Bft) O-NO 67 8,2 C 20,2 C 6,8 km/h (2 Bft)
18.09.2020 15:44 19,7 C 22,2 C 20,2 C 46 % 1022,6 hPa 0,0 l/m 0,2 km/h (0 Bft) S 180 8,2 C 20,2 C 2,7 km/h (1 Bft)
18.09.2020 15:42 19,7 C 23,5 C 20,2 C 47 % 1022,6 hPa 0,0 l/m 0,5 km/h (0 Bft) O-NO 67 8,5 C 20,2 C 2,7 km/h (1 Bft)
18.09.2020 15:40 19,7 C 23,5 C 20,2 C 47 % 1022,7 hPa 0,0 l/m 1,0 km/h (0 Bft) NO 45 8,5 C 20,2 C 0,0 km/h (0 Bft)
18.09.2020 15:38 19,7 C 24,3 C 20,3 C 47 % 1022,7 hPa 0,0 l/m 1,2 km/h (1 Bft) O-NO 67 8,6 C 20,3 C 0,0 km/h (0 Bft)
18.09.2020 15:36 19,7 C 24,4 C 20,3 C 48 % 1022,7 hPa 0,0 l/m 1,7 km/h (1 Bft) O 90 8,9 C 20,3 C 0,0 km/h (0 Bft)
18.09.2020 15:34 19,7 C 24,3 C 20,4 C 48 % 1022,7 hPa 0,0 l/m 1,7 km/h (1 Bft) W 270 9,0 C 20,4 C 2,4 km/h (1 Bft)
18.09.2020 15:32 19,7 C 23,8 C 20,3 C 48 % 1022,7 hPa 0,0 l/m 1,9 km/h (1 Bft) NO 45 8,9 C 20,3 C 5,6 km/h (1 Bft)
18.09.2020 15:30 19,6 C 23,6 C 20,2 C 48 % 1022,7 hPa 0,0 l/m 1,9 km/h (1 Bft) NW 315 8,8 C 20,2 C 5,6 km/h (1 Bft)
18.09.2020 15:28 19,6 C 22,3 C 20,1 C 47 % 1022,7 hPa 0,0 l/m 1,7 km/h (1 Bft) O-SO 112 8,4 C 20,1 C 4,6 km/h (1 Bft)
18.09.2020 15:26 19,6 C 21,2 C 19,9 C 47 % 1022,7 hPa 0,0 l/m 1,7 km/h (1 Bft) NO 45 8,3 C 19,9 C 4,6 km/h (1 Bft)
18.09.2020 15:24 19,6 C 21,1 C 20,1 C 48 % 1022,7 hPa 0,0 l/m 1,7 km/h (1 Bft) SW 225 8,7 C 20,1 C 2,9 km/h (1 Bft)
18.09.2020 15:22 19,6 C 21,2 C 20,2 C 49 % 1022,7 hPa 0,0 l/m 1,4 km/h (1 Bft) O-NO 67 9,1 C 20,2 C 2,9 km/h (1 Bft)
18.09.2020 15:20 19,6 C 22,8 C 20,2 C 49 % 1022,6 hPa 0,0 l/m 1,4 km/h (1 Bft) O-NO 67 9,1 C 20,2 C 2,9 km/h (1 Bft)
18.09.2020 15:18 19,6 C 22,8 C 20,1 C 48 % 1022,6 hPa 0,0 l/m 1,7 km/h (1 Bft) O-NO 67 8,7 C 20,1 C 5,6 km/h (1 Bft)
18.09.2020 15:16 19,6 C 22,4 C 20,0 C 48 % 1022,6 hPa 0,0 l/m 1,9 km/h (1 Bft) N-NO 22 8,7 C 20,0 C 5,6 km/h (1 Bft)
18.09.2020 15:14 19,6 C 21,1 C 19,9 C 48 % 1022,6 hPa 0,0 l/m 1,9 km/h (1 Bft) SO 135 8,6 C 19,9 C 3,9 km/h (1 Bft)
18.09.2020 15:12 19,5 C 21,0 C 20,0 C 48 % 1022,6 hPa 0,0 l/m 1,9 km/h (1 Bft) N-NW 337 8,7 C 20,0 C 5,8 km/h (2 Bft)
18.09.2020 15:10 19,5 C 21,2 C 20,0 C 49 % 1022,6 hPa 0,0 l/m 2,7 km/h (1 Bft) O-SO 112 9,0 C 20,0 C 5,8 km/h (2 Bft)
18.09.2020 15:08 19,5 C 21,2 C 19,8 C 48 % 1022,6 hPa 0,0 l/m 2,9 km/h (1 Bft) N-NW 337 8,5 C 19,8 C 4,6 km/h (1 Bft)
18.09.2020 15:06 19,5 C 20,4 C 19,7 C 48 % 1022,6 hPa 0,0 l/m 2,4 km/h (1 Bft) NO 45 8,4 C 19,7 C 4,6 km/h (1 Bft)
18.09.2020 15:04 19,5 C 21,6 C 20,0 C 48 % 1022,6 hPa 0,0 l/m 2,4 km/h (1 Bft) S 180 8,7 C 20,0 C 2,9 km/h (1 Bft)
18.09.2020 15:02 19,5 C 21,3 C 19,8 C 49 % 1022,6 hPa 0,0 l/m 2,2 km/h (1 Bft) N-NW 337 8,8 C 19,8 C 11,3 km/h (2 Bft)
18.09.2020 15:00 19,5 C 21,8 C 19,8 C 49 % 1022,8 hPa 0,0 l/m 1,9 km/h (1 Bft) W-NW 292 8,8 C 19,8 C 11,3 km/h (2 Bft)
18.09.2020 14:58 19,4 C 23,2 C 19,9 C 49 % 1022,8 hPa 0,0 l/m 1,4 km/h (1 Bft) W 270 8,9 C 19,9 C 3,1 km/h (1 Bft)
18.09.2020 14:56 19,5 C 23,9 C 20,0 C 50 % 1022,8 hPa 0,0 l/m 2,2 km/h (1 Bft) NO 45 9,3 C 20,0 C 3,1 km/h (1 Bft)
18.09.2020 14:54 19,4 C 23,8 C 19,9 C 50 % 1022,8 hPa 0,0 l/m 2,4 km/h (1 Bft) O 90 9,2 C 19,9 C 0,0 km/h (0 Bft)
18.09.2020 14:52 19,5 C 23,5 C 19,9 C 49 % 1022,8 hPa 0,0 l/m 2,7 km/h (1 Bft) O-SO 112 8,9 C 19,9 C 3,1 km/h (1 Bft)
18.09.2020 14:50 19,5 C 22,7 C 19,7 C 50 % 1022,8 hPa 0,0 l/m 2,7 km/h (1 Bft) NW 315 9,0 C 19,7 C 5,6 km/h (1 Bft)
18.09.2020 14:48 19,5 C 22,7 C 19,7 C 50 % 1022,8 hPa 0,0 l/m 2,2 km/h (1 Bft) N-NW 337 9,0 C 19,7 C 5,6 km/h (1 Bft)
18.09.2020 14:46 19,5 C 23,5 C 19,8 C 50 % 1022,8 hPa 0,0 l/m 1,2 km/h (1 Bft) S-SW 202 9,1 C 19,8 C 6,5 km/h (2 Bft)
18.09.2020 14:44 19,5 C 22,8 C 19,6 C 50 % 1022,8 hPa 0,0 l/m 1,4 km/h (1 Bft) O-NO 67 8,9 C 19,6 C 6,5 km/h (2 Bft)
18.09.2020 14:42 19,4 C 22,7 C 19,8 C 50 % 1022,8 hPa 0,0 l/m 1,7 km/h (1 Bft) O-NO 67 9,1 C 19,8 C 0,0 km/h (0 Bft)
18.09.2020 14:40 19,4 C 23,4 C 19,7 C 50 % 1022,8 hPa 0,0 l/m 2,2 km/h (1 Bft) N-NW 337 9,0 C 19,7 C 0,0 km/h (0 Bft)
18.09.2020 14:38 19,4 C 23,7 C 19,6 C 50 % 1022,8 hPa 0,0 l/m 1,9 km/h (1 Bft) N-NO 22 8,9 C 19,6 C 2,4 km/h (1 Bft)
18.09.2020 14:36 19,4 C 23,1 C 19,7 C 50 % 1022,8 hPa 0,0 l/m 2,9 km/h (1 Bft) NO 45 9,0 C 19,7 C 2,9 km/h (1 Bft)
18.09.2020 14:34 19,4 C 22,9 C 19,5 C 50 % 1022,8 hPa 0,0 l/m 3,4 km/h (1 Bft) SW 225 8,8 C 19,5 C 7,5 km/h (2 Bft)
18.09.2020 14:32 19,4 C 22,7 C 19,6 C 50 % 1022,8 hPa 0,0 l/m 3,6 km/h (1 Bft) O-SO 112 8,9 C 19,6 C 7,5 km/h (2 Bft)
18.09.2020 14:30 19,3 C 22,5 C 19,7 C 50 % 1022,8 hPa 0,0 l/m 3,4 km/h (1 Bft) O-NO 67 9,0 C 19,7 C 7,2 km/h (2 Bft)
18.09.2020 14:28 19,3 C 22,5 C 19,7 C 51 % 1022,8 hPa 0,0 l/m 3,6 km/h (1 Bft) N 360 9,3 C 19,7 C 6,3 km/h (2 Bft)
18.09.2020 14:26 19,3 C 22,3 C 19,5 C 50 % 1022,8 hPa 0,0 l/m 4,1 km/h (1 Bft) N-NO 22 8,8 C 19,5 C 6,3 km/h (2 Bft)
18.09.2020 14:24 19,3 C 21,9 C 19,5 C 50 % 1022,8 hPa 0,0 l/m 3,6 km/h (1 Bft) O-SO 112 8,8 C 19,5 C 5,3 km/h (1 Bft)
18.09.2020 14:22 19,3 C 22,0 C 19,5 C 50 % 1022,8 hPa 0,0 l/m 3,6 km/h (1 Bft) O-NO 67 8,8 C 19,5 C 5,3 km/h (1 Bft)
18.09.2020 14:20 19,3 C 21,4 C 19,6 C 50 % 1023,0 hPa 0,0 l/m 2,9 km/h (1 Bft) O-NO 67 8,9 C 19,6 C 8,0 km/h (2 Bft)
18.09.2020 14:18 19,3 C 21,2 C 19,5 C 50 % 1023,0 hPa 0,0 l/m 2,9 km/h (1 Bft) O-SO 112 8,8 C 19,5 C 10,1 km/h (2 Bft)
18.09.2020 14:16 19,2 C 21,3 C 19,4 C 50 % 1023,0 hPa 0,0 l/m 2,4 km/h (1 Bft) N-NW 337 8,7 C 19,4 C 10,1 km/h (2 Bft)
18.09.2020 14:14 19,2 C 21,5 C 19,4 C 50 % 1023,0 hPa 0,0 l/m 2,4 km/h (1 Bft) O 90 8,7 C 19,4 C 7,0 km/h (2 Bft)
18.09.2020 14:12 19,2 C 21,0 C 19,8 C 51 % 1023,0 hPa 0,0 l/m 2,7 km/h (1 Bft) O-NO 67 9,4 C 19,8 C 6,5 km/h (2 Bft)
18.09.2020 14:10 19,2 C 20,4 C 19,6 C 51 % 1023,0 hPa 0,0 l/m 3,4 km/h (1 Bft) NO 45 9,2 C 19,6 C 6,5 km/h (2 Bft)
18.09.2020 14:08 19,2 C 20,8 C 19,5 C 51 % 1023,0 hPa 0,0 l/m 4,1 km/h (1 Bft) N-NW 337 9,1 C 19,5 C 8,7 km/h (2 Bft)
18.09.2020 14:06 19,2 C 20,9 C 19,6 C 52 % 1023,0 hPa 0,0 l/m 4,3 km/h (1 Bft) SO 135 9,5 C 19,6 C 8,7 km/h (2 Bft)
18.09.2020 14:04 19,1 C 21,2 C 19,4 C 52 % 1023,0 hPa 0,0 l/m 3,9 km/h (1 Bft) N-NO 22 9,3 C 19,4 C 6,0 km/h (2 Bft)
18.09.2020 14:02 19,1 C 21,0 C 19,4 C 52 % 1023,0 hPa 0,0 l/m 4,6 km/h (1 Bft) O-NO 67 9,3 C 19,4 C 6,0 km/h (2 Bft)
18.09.2020 14:00 19,1 C 20,8 C 19,6 C 52 % 1023,2 hPa 0,0 l/m 3,9 km/h (1 Bft) O-NO 67 9,5 C 19,6 C 6,5 km/h (2 Bft)
18.09.2020 13:58 19,1 C 20,3 C 19,4 C 52 % 1023,2 hPa 0,0 l/m 3,4 km/h (1 Bft) O 90 9,3 C 19,4 C 6,5 km/h (2 Bft)
18.09.2020 13:56 19,1 C 20,6 C 19,3 C 51 % 1023,2 hPa 0,0 l/m 2,7 km/h (1 Bft) O-NO 67 8,9 C 19,3 C 2,7 km/h (1 Bft)
18.09.2020 13:54 19,0 C 20,5 C 19,6 C 52 % 1023,2 hPa 0,0 l/m 1,9 km/h (1 Bft) O 90 9,5 C 19,6 C 7,7 km/h (2 Bft)
18.09.2020 13:52 19,0 C 19,9 C 19,4 C 51 % 1023,2 hPa 0,0 l/m 2,2 km/h (1 Bft) O-SO 112 9,0 C 19,4 C 7,7 km/h (2 Bft)
18.09.2020 13:50 19,0 C 20,4 C 19,5 C 52 % 1023,2 hPa 0,0 l/m 1,7 km/h (1 Bft) NW 315 9,4 C 19,5 C 0,0 km/h (0 Bft)
18.09.2020 13:48 19,0 C 20,1 C 19,4 C 52 % 1023,2 hPa 0,0 l/m 1,2 km/h (1 Bft) NO 45 9,3 C 19,4 C 0,0 km/h (0 Bft)
18.09.2020 13:46 19,0 C 20,1 C 19,4 C 52 % 1023,2 hPa 0,0 l/m 1,2 km/h (1 Bft) O-NO 67 9,3 C 19,4 C 0,0 km/h (0 Bft)
18.09.2020 13:44 18,9 C 20,3 C 19,3 C 52 % 1023,2 hPa 0,0 l/m 1,4 km/h (1 Bft) SO 135 9,2 C 19,3 C 11,1 km/h (2 Bft)
18.09.2020 13:42 18,9 C 19,9 C 19,2 C 52 % 1023,2 hPa 0,0 l/m 1,2 km/h (1 Bft) O-SO 112 9,1 C 19,2 C 11,1 km/h (2 Bft)
18.09.2020 13:40 18,9 C 19,9 C 19,1 C 52 % 1023,5 hPa 0,0 l/m 1,0 km/h (0 Bft) O-SO 112 9,0 C 19,1 C 0,0 km/h (0 Bft)
18.09.2020 13:38 18,9 C 19,8 C 19,1 C 52 % 1023,5 hPa 0,0 l/m 1,4 km/h (1 Bft) W-SW 247 9,0 C 19,1 C 0,0 km/h (0 Bft)
18.09.2020 13:36 18,8 C 19,9 C 19,3 C 52 % 1023,5 hPa 0,0 l/m 2,2 km/h (1 Bft) N-NW 337 9,2 C 19,3 C 4,1 km/h (1 Bft)
18.09.2020 13:34 18,8 C 19,7 C 19,3 C 54 % 1023,5 hPa 0,0 l/m 2,9 km/h (1 Bft) SW 225 9,8 C 19,3 C 4,1 km/h (1 Bft)
18.09.2020 13:32 18,8 C 19,9 C 19,0 C 54 % 1023,5 hPa 0,0 l/m 2,7 km/h (1 Bft) O-NO 67 9,5 C 19,0 C 2,9 km/h (1 Bft)
18.09.2020 13:30 18,8 C 19,8 C 19,0 C 54 % 1023,5 hPa 0,0 l/m 2,7 km/h (1 Bft) O-NO 67 9,5 C 19,0 C 6,0 km/h (2 Bft)
18.09.2020 13:28 18,8 C 19,8 C 18,5 C 54 % 1023,5 hPa 0,0 l/m 2,4 km/h (1 Bft) O 90 9,0 C 18,5 C 7,5 km/h (2 Bft)
18.09.2020 13:26 18,7 C 20,0 C 18,8 C 54 % 1023,5 hPa 0,0 l/m 1,9 km/h (1 Bft) O-NO 67 9,3 C 18,8 C 7,5 km/h (2 Bft)
18.09.2020 13:24 18,7 C 20,1 C 18,9 C 54 % 1023,5 hPa 0,0 l/m 1,9 km/h (1 Bft) O 90 9,4 C 18,9 C 4,3 km/h (1 Bft)
18.09.2020 13:22 18,7 C 19,8 C 18,9 C 54 % 1023,5 hPa 0,0 l/m 2,7 km/h (1 Bft) SO 135 9,4 C 18,9 C 2,7 km/h (1 Bft)
18.09.2020 13:20 18,7 C 19,2 C 18,8 C 54 % 1023,6 hPa 0,0 l/m 3,6 km/h (1 Bft) W 270 9,3 C 18,8 C 3,4 km/h (1 Bft)
18.09.2020 13:18 18,6 C 19,4 C 18,6 C 54 % 1023,6 hPa 0,0 l/m 3,9 km/h (1 Bft) O 90 9,1 C 18,6 C 3,4 km/h (1 Bft)
18.09.2020 13:16 18,6 C 19,0 C 18,5 C 54 % 1023,6 hPa 0,0 l/m 3,9 km/h (1 Bft) NO 45 9,0 C 18,5 C 6,3 km/h (2 Bft)
18.09.2020 13:14 18,6 C 18,6 C 18,3 C 54 % 1023,6 hPa 0,0 l/m 4,3 km/h (1 Bft) NW 315 8,8 C 18,3 C 9,4 km/h (2 Bft)
18.09.2020 13:12 18,6 C 18,5 C 18,3 C 54 % 1023,6 hPa 0,0 l/m 3,1 km/h (1 Bft) N-NW 337 8,8 C 18,3 C 9,4 km/h (2 Bft)
18.09.2020 13:10 18,5 C 19,0 C 18,7 C 54 % 1023,6 hPa 0,0 l/m 2,7 km/h (1 Bft) N-NO 22 9,2 C 18,7 C 8,2 km/h (2 Bft)
18.09.2020 13:08 18,5 C 19,0 C 18,6 C 54 % 1023,6 hPa 0,0 l/m 2,4 km/h (1 Bft) W-SW 247 9,1 C 18,6 C 5,6 km/h (1 Bft)
18.09.2020 13:06 18,5 C 19,0 C 18,4 C 54 % 1023,6 hPa 0,0 l/m 2,7 km/h (1 Bft) S 180 8,9 C 18,4 C 6,3 km/h (2 Bft)
18.09.2020 13:04 18,5 C 19,2 C 18,6 C 54 % 1023,6 hPa 0,0 l/m 2,7 km/h (1 Bft) N-NW 337 9,1 C 18,6 C 6,3 km/h (2 Bft)
18.09.2020 13:02 18,4 C 19,0 C 18,3 C 54 % 1023,6 hPa 0,0 l/m 3,6 km/h (1 Bft) N-NW 337 8,8 C 18,3 C 5,3 km/h (1 Bft)
18.09.2020 13:00 18,4 C 18,9 C 18,5 C 54 % 1023,9 hPa 0,0 l/m 3,9 km/h (1 Bft) O-NO 67 9,0 C 18,5 C 5,3 km/h (1 Bft)
18.09.2020 12:58 18,4 C 19,1 C 18,6 C 54 % 1023,9 hPa 0,0 l/m 3,9 km/h (1 Bft) S 180 9,1 C 18,6 C 4,6 km/h (1 Bft)
18.09.2020 12:56 18,4 C 19,0 C 18,6 C 55 % 1023,9 hPa 0,0 l/m 3,4 km/h (1 Bft) NO 45 9,4 C 18,6 C 6,8 km/h (2 Bft)
18.09.2020 12:54 18,3 C 19,2 C 18,7 C 55 % 1023,9 hPa 0,0 l/m 3,1 km/h (1 Bft) O-SO 112 9,5 C 18,7 C 7,2 km/h (2 Bft)
18.09.2020 12:52 18,3 C 19,1 C 18,7 C 55 % 1023,9 hPa 0,0 l/m 2,7 km/h (1 Bft) O-NO 67 9,5 C 18,7 C 7,2 km/h (2 Bft)
18.09.2020 12:50 18,3 C 19,0 C 18,7 C 55 % 1023,9 hPa 0,0 l/m 2,2 km/h (1 Bft) O-SO 112 9,5 C 18,7 C 3,4 km/h (1 Bft)
18.09.2020 12:48 18,3 C 18,9 C 18,5 C 55 % 1023,9 hPa 0,0 l/m 1,7 km/h (1 Bft) O-NO 67 9,3 C 18,5 C 3,4 km/h (1 Bft)
18.09.2020 12:46 18,2 C 18,8 C 18,3 C 55 % 1023,9 hPa 0,0 l/m 1,7 km/h (1 Bft) N-NO 22 9,1 C 18,3 C 3,4 km/h (1 Bft)
18.09.2020 12:44 18,2 C 19,1 C 18,5 C 55 % 1023,9 hPa 0,0 l/m 1,9 km/h (1 Bft) N-NO 22 9,3 C 18,5 C 3,6 km/h (1 Bft)
18.09.2020 12:42 18,2 C 19,0 C 18,6 C 55 % 1023,9 hPa 0,0 l/m 1,9 km/h (1 Bft) SO 135 9,4 C 18,6 C 3,6 km/h (1 Bft)
18.09.2020 12:40 18,1 C 18,8 C 18,3 C 55 % 1023,7 hPa 0,0 l/m 1,7 km/h (1 Bft) O-NO 67 9,1 C 18,3 C 0,0 km/h (0 Bft)
18.09.2020 12:38 18,1 C 18,7 C 18,3 C 56 % 1023,7 hPa 0,0 l/m 2,2 km/h (1 Bft) O-SO 112 9,4 C 18,3 C 0,0 km/h (0 Bft)
18.09.2020 12:36 18,1 C 19,0 C 18,5 C 56 % 1023,7 hPa 0,0 l/m 1,9 km/h (1 Bft) NO 45 9,6 C 18,5 C 8,2 km/h (2 Bft)
18.09.2020 12:34 18,1 C 18,9 C 18,4 C 56 % 1023,7 hPa 0,0 l/m 2,4 km/h (1 Bft) N-NW 337 9,5 C 18,4 C 8,2 km/h (2 Bft)
18.09.2020 12:32 18,0 C 19,0 C 18,6 C 56 % 1023,7 hPa 0,0 l/m 2,2 km/h (1 Bft) N 360 9,6 C 18,6 C 5,3 km/h (1 Bft)
18.09.2020 12:30 18,0 C 19,0 C 18,6 C 57 % 1023,7 hPa 0,0 l/m 2,4 km/h (1 Bft) O-NO 67 9,9 C 18,6 C 5,3 km/h (1 Bft)
18.09.2020 12:28 18,0 C 19,0 C 18,4 C 57 % 1023,7 hPa 0,0 l/m 2,4 km/h (1 Bft) O-NO 67 9,7 C 18,4 C 4,6 km/h (1 Bft)
18.09.2020 12:26 18,0 C 18,9 C 18,3 C 57 % 1023,7 hPa 0,0 l/m 2,9 km/h (1 Bft) O-NO 67 9,6 C 18,3 C 3,4 km/h (1 Bft)
18.09.2020 12:24 17,9 C 19,0 C 18,5 C 57 % 1023,7 hPa 0,0 l/m 3,6 km/h (1 Bft) O-NO 67 9,8 C 18,5 C 3,4 km/h (1 Bft)
18.09.2020 12:22 17,9 C 19,0 C 18,4 C 57 % 1023,7 hPa 0,0 l/m 3,4 km/h (1 Bft) SO 135 9,7 C 18,4 C 2,7 km/h (1 Bft)
18.09.2020 12:20 17,9 C 19,0 C 18,5 C 58 % 1023,7 hPa 0,0 l/m 3,4 km/h (1 Bft) N-NO 22 10,1 C 18,5 C 7,2 km/h (2 Bft)
18.09.2020 12:18 17,9 C 19,0 C 18,3 C 57 % 1023,7 hPa 0,0 l/m 3,1 km/h (1 Bft) N-NO 22 9,6 C 18,3 C 10,4 km/h (2 Bft)
18.09.2020 12:16 17,8 C 18,9 C 18,3 C 57 % 1023,7 hPa 0,0 l/m 2,4 km/h (1 Bft) O-SO 112 9,6 C 18,3 C 10,4 km/h (2 Bft)
18.09.2020 12:14 17,8 C 18,6 C 18,3 C 57 % 1023,7 hPa 0,0 l/m 1,4 km/h (1 Bft) O-SO 112 9,6 C 18,3 C 6,5 km/h (2 Bft)
18.09.2020 12:12 17,8 C 18,5 C 18,3 C 57 % 1023,7 hPa 0,0 l/m 1,0 km/h (0 Bft) N 360 9,6 C 18,3 C 6,5 km/h (2 Bft)
18.09.2020 12:10 17,7 C 17,9 C 17,7 C 57 % 1023,7 hPa 0,0 l/m 1,7 km/h (1 Bft) NO 45 9,1 C 17,7 C 0,0 km/h (0 Bft)
18.09.2020 12:08 17,7 C 17,9 C 17,7 C 57 % 1023,7 hPa 0,0 l/m 1,7 km/h (1 Bft) NO 45 9,1 C 17,7 C 0,0 km/h (0 Bft)
18.09.2020 12:06 17,7 C 17,9 C 17,7 C 57 % 1023,7 hPa 0,0 l/m 1,7 km/h (1 Bft) NO 45 9,1 C 17,7 C 0,0 km/h (0 Bft)
18.09.2020 12:04 17,7 C 17,9 C 17,7 C 57 % 1023,7 hPa 0,0 l/m 1,7 km/h (1 Bft) NO 45 9,1 C 17,7 C 0,0 km/h (0 Bft)
18.09.2020 12:02 17,7 C 17,9 C 17,7 C 57 % 1023,7 hPa 0,0 l/m 1,7 km/h (1 Bft) NO 45 9,1 C 17,7 C 6,8 km/h (2 Bft)
18.09.2020 12:00 17,7 C 18,1 C 17,9 C 58 % 1023,9 hPa 0,0 l/m 2,2 km/h (1 Bft) N-NO 22 9,5 C 17,9 C 8,9 km/h (2 Bft)
18.09.2020 11:58 17,7 C 18,2 C 17,7 C 58 % 1023,9 hPa 0,0 l/m 2,4 km/h (1 Bft) N-NW 337 9,3 C 17,7 C 8,9 km/h (2 Bft)
18.09.2020 11:56 17,7 C 18,1 C 17,7 C 58 % 1023,9 hPa 0,0 l/m 2,2 km/h (1 Bft) NW 315 9,3 C 17,7 C 2,9 km/h (1 Bft)
18.09.2020 11:54 17,7 C 17,7 C 17,5 C 57 % 1023,9 hPa 0,0 l/m 2,4 km/h (1 Bft) O-NO 67 8,9 C 17,5 C 2,7 km/h (1 Bft)
18.09.2020 11:52 17,7 C 17,6 C 17,4 C 58 % 1023,9 hPa 0,0 l/m 2,7 km/h (1 Bft) NW 315 9,1 C 17,4 C 11,6 km/h (2 Bft)
18.09.2020 11:50 17,6 C 17,9 C 17,3 C 58 % 1023,9 hPa 0,0 l/m 2,7 km/h (1 Bft) W 270 9,0 C 17,3 C 11,6 km/h (2 Bft)
18.09.2020 11:48 17,6 C 18,0 C 17,5 C 59 % 1023,9 hPa 0,0 l/m 1,7 km/h (1 Bft) O-SO 112 9,4 C 17,5 C 9,7 km/h (2 Bft)
18.09.2020 11:46 17,6 C 18,1 C 17,8 C 59 % 1023,9 hPa 0,0 l/m 1,4 km/h (1 Bft) O-NO 67 9,7 C 17,8 C 9,7 km/h (2 Bft)
18.09.2020 11:44 17,6 C 18,1 C 17,8 C 59 % 1023,9 hPa 0,0 l/m 1,2 km/h (1 Bft) NO 45 9,7 C 17,8 C 2,9 km/h (1 Bft)
18.09.2020 11:42 17,6 C 18,1 C 17,7 C 59 % 1023,9 hPa 0,0 l/m 1,0 km/h (0 Bft) NO 45 9,6 C 17,7 C 3,6 km/h (1 Bft)
18.09.2020 11:40 17,6 C 17,9 C 17,4 C 59 % 1024,4 hPa 0,0 l/m 1,2 km/h (1 Bft) N-NO 22 9,3 C 17,4 C 3,6 km/h (1 Bft)
18.09.2020 11:38 17,5 C 17,3 C 17,4 C 59 % 1024,4 hPa 0,0 l/m 1,9 km/h (1 Bft) NW 315 9,3 C 17,4 C 3,4 km/h (1 Bft)
18.09.2020 11:36 17,5 C 17,5 C 17,2 C 59 % 1024,4 hPa 0,0 l/m 2,7 km/h (1 Bft) SO 135 9,1 C 17,2 C 3,4 km/h (1 Bft)
18.09.2020 11:34 17,5 C 17,0 C 17,1 C 59 % 1024,4 hPa 0,0 l/m 2,9 km/h (1 Bft) S-SO 157 9,0 C 17,1 C 3,4 km/h (1 Bft)
18.09.2020 11:32 17,5 C 16,9 C 16,8 C 60 % 1024,4 hPa 0,0 l/m 3,1 km/h (1 Bft) O-SO 112 9,0 C 16,8 C 2,7 km/h (1 Bft)
18.09.2020 11:30 17,5 C 17,3 C 17,0 C 59 % 1024,4 hPa 0,0 l/m 3,4 km/h (1 Bft) O-NO 67 8,9 C 17,0 C 5,6 km/h (1 Bft)
18.09.2020 11:28 17,5 C 16,7 C 17,0 C 59 % 1024,4 hPa 0,0 l/m 2,9 km/h (1 Bft) N-NW 337 8,9 C 17,0 C 6,3 km/h (2 Bft)
18.09.2020 11:26 17,5 C 17,1 C 17,0 C 60 % 1024,4 hPa 0,0 l/m 2,4 km/h (1 Bft) N-NO 22 9,2 C 17,0 C 6,3 km/h (2 Bft)
18.09.2020 11:24 17,5 C 16,8 C 17,1 C 60 % 1024,4 hPa 0,0 l/m 1,9 km/h (1 Bft) W 270 9,3 C 17,1 C 9,4 km/h (2 Bft)
18.09.2020 11:22 17,4 C 16,9 C 16,8 C 61 % 1024,4 hPa 0,0 l/m 1,7 km/h (1 Bft) NW 315 9,2 C 16,8 C 9,4 km/h (2 Bft)
18.09.2020 11:20 17,4 C 17,2 C 17,3 C 61 % 1024,6 hPa 0,0 l/m 2,4 km/h (1 Bft) W-NW 292 9,7 C 17,3 C 4,1 km/h (1 Bft)
18.09.2020 11:18 17,4 C 16,9 C 17,0 C 61 % 1024,6 hPa 0,0 l/m 3,1 km/h (1 Bft) N-NO 22 9,4 C 17,0 C 4,1 km/h (1 Bft)
18.09.2020 11:16 17,4 C 17,2 C 17,1 C 61 % 1024,6 hPa 0,0 l/m 2,9 km/h (1 Bft) SO 135 9,5 C 17,1 C 3,4 km/h (1 Bft)
18.09.2020 11:14 17,4 C 17,0 C 17,1 C 61 % 1024,6 hPa 0,0 l/m 2,7 km/h (1 Bft) W 270 9,5 C 17,1 C 3,6 km/h (1 Bft)
18.09.2020 11:12 17,4 C 16,8 C 16,9 C 62 % 1024,6 hPa 0,0 l/m 2,7 km/h (1 Bft) S-SW 202 9,6 C 16,9 C 5,3 km/h (1 Bft)
18.09.2020 11:10 17,4 C 16,9 C 16,9 C 62 % 1024,6 hPa 0,0 l/m 2,4 km/h (1 Bft) SO 135 9,6 C 16,9 C 5,3 km/h (1 Bft)
18.09.2020 11:08 17,4 C 16,6 C 17,0 C 62 % 1024,6 hPa 0,0 l/m 1,2 km/h (1 Bft) O-SO 112 9,7 C 17,0 C 3,6 km/h (1 Bft)
18.09.2020 11:06 17,4 C 16,7 C 17,1 C 62 % 1024,6 hPa 0,0 l/m 1,2 km/h (1 Bft) N 360 9,8 C 17,1 C 3,6 km/h (1 Bft)
18.09.2020 11:04 17,4 C 16,6 C 16,8 C 62 % 1024,6 hPa 0,0 l/m 1,4 km/h (1 Bft) O-NO 67 9,5 C 16,8 C 3,1 km/h (1 Bft)
18.09.2020 11:02 17,4 C 16,7 C 16,9 C 62 % 1024,6 hPa 0,0 l/m 1,7 km/h (1 Bft) N-NW 337 9,6 C 16,9 C 6,8 km/h (2 Bft)
18.09.2020 11:00 17,4 C 16,4 C 16,5 C 62 % 1024,6 hPa 0,0 l/m 2,2 km/h (1 Bft) S 180 9,2 C 16,5 C 6,8 km/h (2 Bft)
18.09.2020 10:58 17,4 C 16,0 C 16,4 C 62 % 1024,6 hPa 0,0 l/m 2,7 km/h (1 Bft) W-NW 292 9,1 C 16,4 C 0,0 km/h (0 Bft)
18.09.2020 10:56 17,4 C 15,6 C 16,3 C 62 % 1024,6 hPa 0,0 l/m 3,4 km/h (1 Bft) O-NO 67 9,0 C 16,3 C 0,0 km/h (0 Bft)
18.09.2020 10:54 17,4 C 15,4 C 16,3 C 62 % 1024,6 hPa 0,0 l/m 3,4 km/h (1 Bft) O-NO 67 9,0 C 16,3 C 3,9 km/h (1 Bft)
18.09.2020 10:52 17,4 C 15,2 C 16,3 C 62 % 1024,6 hPa 0,0 l/m 3,4 km/h (1 Bft) O-SO 112 9,0 C 16,3 C 6,8 km/h (2 Bft)
18.09.2020 10:50 17,4 C 15,2 C 16,5 C 63 % 1024,6 hPa 0,0 l/m 3,4 km/h (1 Bft) O-NO 67 9,4 C 16,5 C 10,9 km/h (2 Bft)
18.09.2020 10:48 17,4 C 15,1 C 16,4 C 63 % 1024,6 hPa 0,0 l/m 3,6 km/h (1 Bft) NO 45 9,3 C 16,4 C 10,9 km/h (2 Bft)
18.09.2020 10:46 17,4 C 15,3 C 15,9 C 63 % 1024,6 hPa 0,0 l/m 3,6 km/h (1 Bft) N-NW 337 8,9 C 15,9 C 5,1 km/h (1 Bft)
18.09.2020 10:44 17,4 C 15,2 C 16,3 C 63 % 1024,6 hPa 0,0 l/m 3,4 km/h (1 Bft) N-NO 22 9,2 C 16,3 C 3,1 km/h (1 Bft)
18.09.2020 10:42 17,4 C 14,8 C 15,9 C 63 % 1024,6 hPa 0,0 l/m 3,1 km/h (1 Bft) O-NO 67 8,9 C 15,9 C 3,1 km/h (1 Bft)
18.09.2020 10:40 17,4 C 14,5 C 16,0 C 63 % 1024,4 hPa 0,0 l/m 2,7 km/h (1 Bft) N-NO 22 9,0 C 16,0 C 4,3 km/h (1 Bft)
18.09.2020 10:38 17,4 C 14,5 C 16,1 C 63 % 1024,4 hPa 0,0 l/m 2,4 km/h (1 Bft) O-NO 67 9,1 C 16,1 C 6,0 km/h (2 Bft)
18.09.2020 10:36 17,4 C 14,4 C 15,8 C 64 % 1024,4 hPa 0,0 l/m 3,6 km/h (1 Bft) N-NO 22 9,0 C 15,8 C 14,5 km/h (3 Bft)
18.09.2020 10:34 17,4 C 14,6 C 16,2 C 64 % 1024,4 hPa 0,0 l/m 3,4 km/h (1 Bft) NO 45 9,4 C 16,2 C 2,4 km/h (1 Bft)
18.09.2020 10:32 17,3 C 14,3 C 15,8 C 64 % 1024,4 hPa 0,0 l/m 3,4 km/h (1 Bft) SO 135 9,0 C 15,8 C 2,4 km/h (1 Bft)
18.09.2020 10:30 17,3 C 14,2 C 15,9 C 64 % 1024,4 hPa 0,0 l/m 4,6 km/h (1 Bft) N-NO 22 9,1 C 15,9 C 3,9 km/h (1 Bft)
18.09.2020 10:28 17,3 C 14,4 C 15,4 C 65 % 1024,4 hPa 0,0 l/m 5,3 km/h (1 Bft) N-NW 337 8,9 C 15,4 C 14,2 km/h (3 Bft)
18.09.2020 10:26 17,3 C 14,3 C 15,2 C 65 % 1024,4 hPa 0,0 l/m 5,3 km/h (1 Bft) N-NW 337 8,7 C 15,2 C 14,2 km/h (3 Bft)
18.09.2020 10:24 17,3 C 13,9 C 15,6 C 65 % 1024,4 hPa 0,0 l/m 4,6 km/h (1 Bft) N-NO 22 9,0 C 15,6 C 3,6 km/h (1 Bft)
18.09.2020 10:22 17,3 C 14,1 C 15,2 C 65 % 1024,4 hPa 0,0 l/m 4,8 km/h (1 Bft) W-SW 247 8,7 C 15,2 C 7,7 km/h (2 Bft)
18.09.2020 10:20 17,3 C 14,2 C 15,2 C 65 % 1024,5 hPa 0,0 l/m 4,6 km/h (1 Bft) NW 315 8,7 C 15,2 C 12,1 km/h (2 Bft)
18.09.2020 10:18 17,3 C 14,3 C 15,5 C 65 % 1024,5 hPa 0,0 l/m 4,1 km/h (1 Bft) N-NO 22 8,9 C 15,5 C 12,1 km/h (2 Bft)
18.09.2020 10:16 17,4 C 13,9 C 15,3 C 65 % 1024,5 hPa 0,0 l/m 3,6 km/h (1 Bft) N-NO 22 8,8 C 15,3 C 10,4 km/h (2 Bft)
18.09.2020 10:14 17,4 C 13,8 C 15,5 C 66 % 1024,5 hPa 0,0 l/m 3,1 km/h (1 Bft) W 270 9,2 C 15,5 C 8,0 km/h (2 Bft)
18.09.2020 10:12 17,4 C 13,6 C 15,6 C 66 % 1024,5 hPa 0,0 l/m 2,4 km/h (1 Bft) O-SO 112 9,3 C 15,6 C 6,8 km/h (2 Bft)
18.09.2020 10:10 17,4 C 13,6 C 15,3 C 66 % 1024,5 hPa 0,0 l/m 3,1 km/h (1 Bft) O-NO 67 9,0 C 15,3 C 6,8 km/h (2 Bft)
18.09.2020 10:08 17,4 C 13,8 C 15,3 C 67 % 1024,5 hPa 0,0 l/m 3,4 km/h (1 Bft) NW 315 9,2 C 15,3 C 5,6 km/h (1 Bft)
18.09.2020 10:06 17,4 C 13,6 C 15,2 C 67 % 1024,5 hPa 0,0 l/m 3,4 km/h (1 Bft) N-NW 337 9,1 C 15,2 C 5,6 km/h (1 Bft)
18.09.2020 10:04 17,4 C 13,7 C 15,5 C 68 % 1024,5 hPa 0,0 l/m 3,6 km/h (1 Bft) NO 45 9,6 C 15,5 C 5,6 km/h (1 Bft)
18.09.2020 10:02 17,4 C 13,6 C 15,3 C 68 % 1024,5 hPa 0,0 l/m 3,9 km/h (1 Bft) S-SO 157 9,4 C 15,3 C 7,2 km/h (2 Bft)
18.09.2020 10:00 17,4 C 13,6 C 14,9 C 68 % 1024,4 hPa 0,0 l/m 3,9 km/h (1 Bft) W-SW 247 9,0 C 14,9 C 7,2 km/h (2 Bft)
18.09.2020 09:58 17,4 C 13,3 C 15,3 C 68 % 1024,4 hPa 0,0 l/m 3,4 km/h (1 Bft) N-NO 22 9,4 C 15,3 C 5,1 km/h (1 Bft)
18.09.2020 09:56 17,4 C 13,5 C 14,8 C 70 % 1024,4 hPa 0,0 l/m 3,9 km/h (1 Bft) N-NW 337 9,4 C 14,8 C 6,3 km/h (2 Bft)
18.09.2020 09:54 17,4 C 13,5 C 14,9 C 70 % 1024,4 hPa 0,0 l/m 3,1 km/h (1 Bft) O-NO 67 9,5 C 14,9 C 8,0 km/h (2 Bft)
18.09.2020 09:52 17,4 C 13,1 C 14,9 C 70 % 1024,4 hPa 0,0 l/m 3,1 km/h (1 Bft) N-NW 337 9,5 C 14,9 C 8,0 km/h (2 Bft)
18.09.2020 09:50 17,4 C 12,9 C 15,0 C 70 % 1024,4 hPa 0,0 l/m 2,9 km/h (1 Bft) N 360 9,6 C 15,0 C 3,9 km/h (1 Bft)
18.09.2020 09:48 17,4 C 13,2 C 14,6 C 71 % 1024,4 hPa 0,0 l/m 2,9 km/h (1 Bft) W-SW 247 9,4 C 14,6 C 6,5 km/h (2 Bft)
18.09.2020 09:46 17,4 C 12,9 C 14,9 C 71 % 1024,4 hPa 0,0 l/m 2,9 km/h (1 Bft) N-NW 337 9,7 C 14,9 C 13,5 km/h (3 Bft)
18.09.2020 09:44 17,4 C 12,9 C 14,6 C 72 % 1024,4 hPa 0,0 l/m 2,7 km/h (1 Bft) NW 315 9,6 C 14,6 C 9,4 km/h (2 Bft)
18.09.2020 09:42 17,4 C 13,0 C 14,4 C 72 % 1024,4 hPa 0,0 l/m 1,9 km/h (1 Bft) NW 315 9,4 C 14,4 C 9,4 km/h (2 Bft)
18.09.2020 09:40 17,4 C 12,7 C 14,5 C 72 % 1024,2 hPa 0,0 l/m 2,2 km/h (1 Bft) NW 315 9,5 C 14,5 C 5,3 km/h (1 Bft)
18.09.2020 09:38 17,4 C 12,6 C 14,2 C 73 % 1024,2 hPa 0,0 l/m 2,7 km/h (1 Bft) W 270 9,4 C 14,2 C 13,3 km/h (3 Bft)
18.09.2020 09:36 17,4 C 12,5 C 14,2 C 73 % 1024,2 hPa 0,0 l/m 3,1 km/h (1 Bft) N-NO 22 9,4 C 14,2 C 13,3 km/h (3 Bft)
18.09.2020 09:34 17,4 C 12,4 C 14,2 C 73 % 1024,2 hPa 0,0 l/m 3,1 km/h (1 Bft) NO 45 9,4 C 14,2 C 3,4 km/h (1 Bft)
18.09.2020 09:32 17,4 C 12,5 C 14,1 C 74 % 1024,2 hPa 0,0 l/m 3,4 km/h (1 Bft) NO 45 9,5 C 14,1 C 3,1 km/h (1 Bft)
18.09.2020 09:30 17,4 C 12,3 C 13,9 C 74 % 1024,2 hPa 0,0 l/m 2,9 km/h (1 Bft) N-NW 337 9,3 C 13,9 C 7,2 km/h (2 Bft)
18.09.2020 09:28 17,4 C 12,4 C 13,6 C 75 % 1024,2 hPa 0,0 l/m 3,1 km/h (1 Bft) NW 315 9,3 C 13,6 C 9,4 km/h (2 Bft)
18.09.2020 09:26 17,4 C 12,3 C 13,6 C 75 % 1024,2 hPa 0,0 l/m 2,7 km/h (1 Bft) NW 315 9,3 C 13,6 C 9,4 km/h (2 Bft)
18.09.2020 09:24 17,5 C 12,2 C 13,6 C 75 % 1024,2 hPa 0,0 l/m 1,9 km/h (1 Bft) NO 45 9,3 C 13,6 C 4,3 km/h (1 Bft)
18.09.2020 09:22 17,5 C 12,1 C 13,5 C 76 % 1024,2 hPa 0,0 l/m 1,9 km/h (1 Bft) NO 45 9,4 C 13,5 C 0,0 km/h (0 Bft)
18.09.2020 09:20 17,6 C 12,3 C 13,3 C 77 % 1024,2 hPa 0,0 l/m 1,9 km/h (1 Bft) N-NW 337 9,4 C 13,3 C 3,1 km/h (1 Bft)
18.09.2020 09:18 17,6 C 12,2 C 13,0 C 77 % 1024,2 hPa 0,0 l/m 2,4 km/h (1 Bft) NW 315 9,1 C 13,0 C 6,8 km/h (2 Bft)
18.09.2020 09:16 17,6 C 12,2 C 12,6 C 78 % 1024,2 hPa 0,0 l/m 1,9 km/h (1 Bft) NW 315 8,9 C 12,6 C 11,1 km/h (2 Bft)
18.09.2020 09:14 17,6 C 12,2 C 12,4 C 79 % 1024,2 hPa 0,0 l/m 2,2 km/h (1 Bft) N-NO 22 8,9 C 12,4 C 11,1 km/h (2 Bft)
18.09.2020 09:12 17,6 C 11,9 C 12,0 C 79 % 1024,2 hPa 0,0 l/m 2,2 km/h (1 Bft) W-NW 292 8,5 C 12,0 C 11,1 km/h (2 Bft)
18.09.2020 09:10 17,6 C 11,8 C 11,7 C 79 % 1024,2 hPa 0,0 l/m 1,4 km/h (1 Bft) N 360 8,2 C 11,7 C 4,6 km/h (1 Bft)
18.09.2020 09:08 17,6 C 11,8 C 11,6 C 80 % 1024,2 hPa 0,0 l/m 1,2 km/h (1 Bft) N-NO 22 8,3 C 11,6 C 0,0 km/h (0 Bft)
18.09.2020 09:06 17,6 C 11,7 C 11,3 C 80 % 1024,2 hPa 0,0 l/m 1,2 km/h (1 Bft) W-SW 247 8,0 C 11,3 C 4,8 km/h (1 Bft)
18.09.2020 09:04 17,6 C 11,5 C 11,2 C 80 % 1024,2 hPa 0,0 l/m 1,2 km/h (1 Bft) W 270 7,9 C 11,2 C 5,1 km/h (1 Bft)
18.09.2020 09:02 17,6 C 11,3 C 11,1 C 80 % 1024,2 hPa 0,0 l/m 0,2 km/h (0 Bft) N-NO 22 7,8 C 11,1 C 5,1 km/h (1 Bft)
18.09.2020 09:00 17,7 C 11,2 C 11,0 C 80 % 1024,0 hPa 0,0 l/m 0,5 km/h (0 Bft) N-NW 337 7,7 C 11,0 C 0,0 km/h (0 Bft)
18.09.2020 08:58 17,6 C 11,1 C 10,8 C 80 % 1024,0 hPa 0,0 l/m 1,0 km/h (0 Bft) O 90 7,5 C 10,8 C 0,0 km/h (0 Bft)
18.09.2020 08:56 17,7 C 11,1 C 10,7 C 80 % 1024,0 hPa 0,0 l/m 0,7 km/h (0 Bft) O 90 7,4 C 10,7 C 0,0 km/h (0 Bft)
18.09.2020 08:54 17,7 C 11,1 C 10,7 C 80 % 1024,0 hPa 0,0 l/m 1,0 km/h (0 Bft) N-NO 22 7,4 C 10,7 C 0,0 km/h (0 Bft)
18.09.2020 08:52 17,7 C 11,0 C 10,6 C 80 % 1024,0 hPa 0,0 l/m 1,0 km/h (0 Bft) O-SO 112 7,3 C 10,6 C 4,6 km/h (1 Bft)
18.09.2020 08:50 17,7 C 11,0 C 10,5 C 81 % 1024,0 hPa 0,0 l/m 1,0 km/h (0 Bft) N-NW 337 7,4 C 10,5 C 4,6 km/h (1 Bft)
18.09.2020 08:48 17,7 C 11,0 C 10,3 C 81 % 1024,0 hPa 0,0 l/m 0,7 km/h (0 Bft) NW 315 7,2 C 10,3 C 4,1 km/h (1 Bft)
18.09.2020 08:46 17,7 C 10,9 C 10,2 C 81 % 1024,0 hPa 0,0 l/m 0,5 km/h (0 Bft) SO 135 7,1 C 10,2 C 0,0 km/h (0 Bft)
18.09.2020 08:44 17,7 C 11,0 C 10,1 C 81 % 1024,0 hPa 0,0 l/m 0,2 km/h (0 Bft) N-NO 22 7,0 C 10,1 C 0,0 km/h (0 Bft)
18.09.2020 08:42 17,7 C 10,8 C 10,0 C 81 % 1024,0 hPa 0,0 l/m 0,2 km/h (0 Bft) N-NO 22 6,9 C 10,0 C 0,0 km/h (0 Bft)
18.09.2020 08:40 17,7 C 10,6 C 9,9 C 81 % 1024,1 hPa 0,0 l/m 0,2 km/h (0 Bft) N-NO 22 6,8 C 9,9 C 0,0 km/h (0 Bft)
18.09.2020 08:38 17,7 C 10,6 C 9,8 C 81 % 1024,1 hPa 0,0 l/m 0,2 km/h (0 Bft) O-NO 67 6,7 C 9,8 C 0,0 km/h (0 Bft)
18.09.2020 08:36 17,8 C 10,7 C 9,7 C 81 % 1024,1 hPa 0,0 l/m 0,5 km/h (0 Bft) NW 315 6,6 C 9,7 C 0,0 km/h (0 Bft)
18.09.2020 08:34 17,7 C 10,6 C 9,6 C 81 % 1024,1 hPa 0,0 l/m 1,4 km/h (1 Bft) NW 315 6,5 C 9,6 C 2,4 km/h (1 Bft)
18.09.2020 08:32 17,8 C 10,5 C 9,5 C 81 % 1024,1 hPa 0,0 l/m 1,4 km/h (1 Bft) NW 315 6,4 C 9,5 C 2,4 km/h (1 Bft)
18.09.2020 08:30 17,8 C 10,4 C 9,5 C 81 % 1024,1 hPa 0,0 l/m 1,4 km/h (1 Bft) W-NW 292 6,4 C 9,5 C 0,0 km/h (0 Bft)
18.09.2020 08:28 17,8 C 10,4 C 9,3 C 81 % 1024,1 hPa 0,0 l/m 1,4 km/h (1 Bft) W 270 6,2 C 9,3 C 0,0 km/h (0 Bft)
18.09.2020 08:26 17,8 C 10,3 C 9,4 C 81 % 1024,1 hPa 0,0 l/m 1,4 km/h (1 Bft) N-NO 22 6,3 C 9,4 C 8,0 km/h (2 Bft)
18.09.2020 08:24 17,8 C 10,1 C 9,2 C 81 % 1024,1 hPa 0,0 l/m 1,0 km/h (0 Bft) W 270 6,1 C 9,2 C 8,0 km/h (2 Bft)
18.09.2020 08:22 17,8 C 10,1 C 8,8 C 82 % 1024,1 hPa 0,0 l/m 0,2 km/h (0 Bft) W 270 5,9 C 8,8 C 0,0 km/h (0 Bft)
18.09.2020 08:20 17,8 C 9,7 C 8,7 C 82 % 1024,1 hPa 0,0 l/m 0,2 km/h (0 Bft) W-SW 247 5,8 C 8,7 C 0,0 km/h (0 Bft)
18.09.2020 08:18 17,8 C 9,7 C 8,3 C 81 % 1024,1 hPa 0,0 l/m 0,0 km/h (0 Bft) W 270 5,2 C 8,3 C 3,4 km/h (1 Bft)
18.09.2020 08:16 17,8 C 9,6 C 8,2 C 81 % 1024,1 hPa 0,0 l/m 0,0 km/h (0 Bft) W-SW 247 5,1 C 8,2 C 3,4 km/h (1 Bft)
18.09.2020 08:14 17,8 C 9,5 C 8,0 C 81 % 1024,1 hPa 0,0 l/m 0,0 km/h (0 Bft) S-SW 202 4,9 C 8,0 C 0,0 km/h (0 Bft)
18.09.2020 08:12 17,9 C 9,5 C 7,9 C 81 % 1024,1 hPa 0,0 l/m 0,0 km/h (0 Bft) W 270 4,8 C 7,9 C 0,0 km/h (0 Bft)
18.09.2020 08:10 17,9 C 9,5 C 7,9 C 81 % 1024,1 hPa 0,0 l/m 0,0 km/h (0 Bft) O 90 4,8 C 7,9 C 0,0 km/h (0 Bft)
18.09.2020 08:08 17,9 C 9,3 C 7,9 C 81 % 1024,1 hPa 0,0 l/m 0,0 km/h (0 Bft) O 90 4,8 C 7,9 C 0,0 km/h (0 Bft)
18.09.2020 08:06 17,9 C 9,3 C 7,7 C 81 % 1024,1 hPa 0,0 l/m 0,0 km/h (0 Bft) O 90 4,7 C 7,7 C 0,0 km/h (0 Bft)
18.09.2020 08:04 17,9 C 9,1 C 7,7 C 81 % 1024,1 hPa 0,0 l/m 0,0 km/h (0 Bft) O 90 4,7 C 7,7 C 0,0 km/h (0 Bft)
18.09.2020 08:02 18,0 C 8,9 C 7,6 C 81 % 1024,1 hPa 0,0 l/m 0,0 km/h (0 Bft) O 90 4,6 C 7,6 C 0,0 km/h (0 Bft)
18.09.2020 08:00 18,0 C 8,9 C 7,6 C 81 % 1024,1 hPa 0,0 l/m 0,0 km/h (0 Bft) O 90 4,6 C 7,6 C 0,0 km/h (0 Bft)
18.09.2020 07:58 18,0 C 8,9 C 7,7 C 81 % 1024,1 hPa 0,0 l/m 0,0 km/h (0 Bft) O 90 4,7 C 7,7 C 0,0 km/h (0 Bft)
18.09.2020 07:56 18,0 C 8,6 C 7,7 C 81 % 1024,1 hPa 0,0 l/m 0,0 km/h (0 Bft) W 270 4,7 C 7,7 C 0,0 km/h (0 Bft)
18.09.2020 07:54 18,0 C 8,5 C 7,4 C 81 % 1024,1 hPa 0,0 l/m 0,0 km/h (0 Bft) W 270 4,4 C 7,4 C 0,0 km/h (0 Bft)
18.09.2020 07:52 18,0 C 8,1 C 7,3 C 81 % 1024,1 hPa 0,0 l/m 0,0 km/h (0 Bft) W 270 4,3 C 7,3 C 0,0 km/h (0 Bft)
18.09.2020 07:50 18,0 C 8,0 C 7,3 C 81 % 1024,1 hPa 0,0 l/m 0,0 km/h (0 Bft) W 270 4,3 C 7,3 C 0,0 km/h (0 Bft)
18.09.2020 07:48 18,0 C 7,9 C 7,2 C 81 % 1024,1 hPa 0,0 l/m 0,0 km/h (0 Bft) W 270 4,2 C 7,2 C 0,0 km/h (0 Bft)
18.09.2020 07:46 18,0 C 8,0 C 7,2 C 80 % 1024,1 hPa 0,0 l/m 0,0 km/h (0 Bft) W 270 4,0 C 7,2 C 0,0 km/h (0 Bft)
18.09.2020 07:44 18,0 C 7,7 C 7,1 C 80 % 1024,1 hPa 0,0 l/m 0,0 km/h (0 Bft) W 270 3,9 C 7,1 C 0,0 km/h (0 Bft)
18.09.2020 07:42 18,0 C 7,6 C 7,1 C 80 % 1024,1 hPa 0,0 l/m 0,0 km/h (0 Bft) W 270 3,9 C 7,1 C 0,0 km/h (0 Bft)
18.09.2020 07:40 18,0 C 7,4 C 6,9 C 80 % 1023,9 hPa 0,0 l/m 0,0 km/h (0 Bft) W 270 3,7 C 6,9 C 0,0 km/h (0 Bft)
18.09.2020 07:38 18,0 C 7,4 C 6,9 C 80 % 1023,9 hPa 0,0 l/m 0,0 km/h (0 Bft) W 270 3,7 C 6,9 C 0,0 km/h (0 Bft)
18.09.2020 07:36 18,0 C 7,4 C 6,9 C 80 % 1023,9 hPa 0,0 l/m 0,0 km/h (0 Bft) W 270 3,7 C 6,9 C 0,0 km/h (0 Bft)
18.09.2020 07:34 18,0 C 7,3 C 6,9 C 80 % 1023,9 hPa 0,0 l/m 0,0 km/h (0 Bft) W 270 3,7 C 6,9 C 0,0 km/h (0 Bft)
18.09.2020 07:32 18,0 C 7,1 C 6,8 C 80 % 1023,9 hPa 0,0 l/m 0,0 km/h (0 Bft) W 270 3,6 C 6,8 C 0,0 km/h (0 Bft)
18.09.2020 07:30 18,1 C 7,1 C 6,8 C 80 % 1023,9 hPa 0,0 l/m 0,0 km/h (0 Bft) W 270 3,6 C 6,8 C 0,0 km/h (0 Bft)
18.09.2020 07:28 18,1 C 7,2 C 6,8 C 80 % 1023,9 hPa 0,0 l/m 0,0 km/h (0 Bft) W 270 3,6 C 6,8 C 0,0 km/h (0 Bft)
18.09.2020 07:26 18,1 C 7,4 C 6,7 C 80 % 1023,9 hPa 0,0 l/m 0,0 km/h (0 Bft) W 270 3,5 C 6,7 C 0,0 km/h (0 Bft)
18.09.2020 07:24 18,1 C 7,0 C 6,7 C 80 % 1023,9 hPa 0,0 l/m 0,0 km/h (0 Bft) W 270 3,5 C 6,7 C 0,0 km/h (0 Bft)
18.09.2020 07:22 18,1 C 6,9 C 6,7 C 80 % 1023,9 hPa 0,0 l/m 0,0 km/h (0 Bft) W 270 3,5 C 6,7 C 0,0 km/h (0 Bft)
18.09.2020 07:20 18,1 C 7,3 C 6,7 C 80 % 1023,8 hPa 0,0 l/m 0,0 km/h (0 Bft) W 270 3,5 C 6,7 C 0,0 km/h (0 Bft)
18.09.2020 07:18 18,1 C 7,2 C 6,7 C 80 % 1023,8 hPa 0,0 l/m 0,0 km/h (0 Bft) W 270 3,5 C 6,7 C 0,0 km/h (0 Bft)
18.09.2020 07:16 18,1 C 7,5 C 6,6 C 79 % 1023,8 hPa 0,0 l/m 0,0 km/h (0 Bft) W 270 3,2 C 6,6 C 0,0 km/h (0 Bft)
18.09.2020 07:14 18,1 C 7,2 C 6,6 C 79 % 1023,8 hPa 0,0 l/m 0,0 km/h (0 Bft) W 270 3,2 C 6,6 C 0,0 km/h (0 Bft)
18.09.2020 07:12 18,1 C 7,1 C 6,6 C 79 % 1023,8 hPa 0,0 l/m 0,0 km/h (0 Bft) W 270 3,2 C 6,6 C 0,0 km/h (0 Bft)
18.09.2020 07:10 18,1 C 6,6 C 6,5 C 79 % 1023,8 hPa 0,0 l/m 0,0 km/h (0 Bft) W 270 3,1 C 6,5 C 0,0 km/h (0 Bft)
18.09.2020 07:08 18,2 C 6,7 C 6,4 C 79 % 1023,8 hPa 0,0 l/m 0,0 km/h (0 Bft) W 270 3,0 C 6,4 C 0,0 km/h (0 Bft)
18.09.2020 07:06 18,2 C 6,4 C 6,4 C 79 % 1023,8 hPa 0,0 l/m 0,0 km/h (0 Bft) W 270 3,0 C 6,4 C 0,0 km/h (0 Bft)
18.09.2020 07:04 18,2 C 6,2 C 6,4 C 79 % 1023,8 hPa 0,0 l/m 0,0 km/h (0 Bft) W 270 3,0 C 6,4 C 0,0 km/h (0 Bft)
18.09.2020 07:02 18,2 C 6,1 C 6,4 C 79 % 1023,8 hPa 0,0 l/m 0,0 km/h (0 Bft) W 270 3,0 C 6,4 C 0,0 km/h (0 Bft)
18.09.2020 07:00 18,2 C 6,2 C 6,4 C 79 % 1023,8 hPa 0,0 l/m 0,0 km/h (0 Bft) W 270 3,0 C 6,4 C 0,0 km/h (0 Bft)
18.09.2020 06:58 18,2 C 6,4 C 6,4 C 79 % 1023,8 hPa 0,0 l/m 0,0 km/h (0 Bft) W 270 3,0 C 6,4 C 0,0 km/h (0 Bft)
18.09.2020 06:56 18,2 C 6,5 C 6,4 C 79 % 1023,8 hPa 0,0 l/m 0,0 km/h (0 Bft) W 270 3,0 C 6,4 C 0,0 km/h (0 Bft)
18.09.2020 06:54 18,2 C 6,3 C 6,4 C 79 % 1023,8 hPa 0,0 l/m 0,0 km/h (0 Bft) W 270 3,0 C 6,4 C 0,0 km/h (0 Bft)
18.09.2020 06:52 18,2 C 6,4 C 6,4 C 79 % 1023,8 hPa 0,0 l/m 0,0 km/h (0 Bft) W 270 3,0 C 6,4 C 0,0 km/h (0 Bft)
18.09.2020 06:50 18,2 C 6,6 C 6,4 C 79 % 1023,8 hPa 0,0 l/m 0,0 km/h (0 Bft) W 270 3,0 C 6,4 C 0,0 km/h (0 Bft)
18.09.2020 06:48 18,2 C 6,3 C 6,5 C 79 % 1023,8 hPa 0,0 l/m 0,0 km/h (0 Bft) W 270 3,1 C 6,5 C 0,0 km/h (0 Bft)
18.09.2020 06:46 18,3 C 6,2 C 6,4 C 79 % 1023,8 hPa 0,0 l/m 0,0 km/h (0 Bft) W 270 3,0 C 6,4 C 0,0 km/h (0 Bft)
18.09.2020 06:44 18,3 C 6,3 C 6,3 C 79 % 1023,8 hPa 0,0 l/m 0,0 km/h (0 Bft) W 270 2,9 C 6,3 C 0,0 km/h (0 Bft)
18.09.2020 06:42 18,3 C 6,4 C 6,3 C 79 % 1023,8 hPa 0,0 l/m 0,0 km/h (0 Bft) W 270 2,9 C 6,3 C 0,0 km/h (0 Bft)
18.09.2020 06:40 18,3 C 6,1 C 6,4 C 79 % 1023,7 hPa 0,0 l/m 0,0 km/h (0 Bft) W 270 3,0 C 6,4 C 0,0 km/h (0 Bft)
18.09.2020 06:38 18,3 C 6,3 C 6,4 C 78 % 1023,7 hPa 0,0 l/m 0,0 km/h (0 Bft) W 270 2,8 C 6,4 C 0,0 km/h (0 Bft)
18.09.2020 06:36 18,3 C 6,1 C 6,4 C 78 % 1023,7 hPa 0,0 l/m 0,0 km/h (0 Bft) W 270 2,8 C 6,4 C 0,0 km/h (0 Bft)
18.09.2020 06:34 18,3 C 6,0 C 6,4 C 78 % 1023,7 hPa 0,0 l/m 0,0 km/h (0 Bft) W 270 2,8 C 6,4 C 0,0 km/h (0 Bft)
18.09.2020 06:32 18,3 C 6,2 C 6,4 C 78 % 1023,7 hPa 0,0 l/m 0,0 km/h (0 Bft) W 270 2,8 C 6,4 C 0,0 km/h (0 Bft)
18.09.2020 06:30 18,3 C 6,1 C 6,5 C 78 % 1023,7 hPa 0,0 l/m 0,0 km/h (0 Bft) W 270 2,9 C 6,5 C 0,0 km/h (0 Bft)
18.09.2020 06:28 18,3 C 6,6 C 6,4 C 78 % 1023,7 hPa 0,0 l/m 0,0 km/h (0 Bft) W 270 2,8 C 6,4 C 0,0 km/h (0 Bft)
18.09.2020 06:26 18,4 C 6,5 C 6,5 C 78 % 1023,7 hPa 0,0 l/m 0,0 km/h (0 Bft) W 270 2,9 C 6,5 C 0,0 km/h (0 Bft)
18.09.2020 06:24 18,4 C 6,3 C 6,5 C 78 % 1023,7 hPa 0,0 l/m 0,0 km/h (0 Bft) W 270 2,9 C 6,5 C 0,0 km/h (0 Bft)
18.09.2020 06:22 18,4 C 6,2 C 6,5 C 78 % 1023,7 hPa 0,0 l/m 0,0 km/h (0 Bft) W 270 2,9 C 6,5 C 0,0 km/h (0 Bft)
18.09.2020 06:20 18,4 C 6,6 C 6,6 C 78 % 1023,7 hPa 0,0 l/m 0,0 km/h (0 Bft) W 270 3,0 C 6,6 C 0,0 km/h (0 Bft)
18.09.2020 06:18 18,4 C 6,4 C 6,6 C 78 % 1023,7 hPa 0,0 l/m 0,0 km/h (0 Bft) W 270 3,0 C 6,6 C 0,0 km/h (0 Bft)
18.09.2020 06:16 18,4 C 6,3 C 6,6 C 78 % 1023,7 hPa 0,0 l/m 0,0 km/h (0 Bft) W 270 3,0 C 6,6 C 0,0 km/h (0 Bft)
18.09.2020 06:14 18,4 C 6,4 C 6,6 C 78 % 1023,7 hPa 0,0 l/m 0,0 km/h (0 Bft) W 270 3,0 C 6,6 C 0,0 km/h (0 Bft)
18.09.2020 06:12 18,4 C 6,7 C 6,7 C 78 % 1023,7 hPa 0,0 l/m 0,0 km/h (0 Bft) W 270 3,1 C 6,7 C 0,0 km/h (0 Bft)
18.09.2020 06:10 18,5 C 6,2 C 6,6 C 78 % 1023,7 hPa 0,0 l/m 0,0 km/h (0 Bft) W 270 3,0 C 6,6 C 0,0 km/h (0 Bft)
18.09.2020 06:08 18,5 C 6,2 C 6,6 C 78 % 1023,7 hPa 0,0 l/m 0,0 km/h (0 Bft) W 270 3,0 C 6,6 C 0,0 km/h (0 Bft)
18.09.2020 06:06 18,5 C 6,2 C 6,6 C 78 % 1023,7 hPa 0,0 l/m 0,0 km/h (0 Bft) W 270 3,0 C 6,6 C 0,0 km/h (0 Bft)
18.09.2020 06:04 18,5 C 6,2 C 6,6 C 78 % 1023,7 hPa 0,0 l/m 0,0 km/h (0 Bft) W 270 3,0 C 6,6 C 0,0 km/h (0 Bft)
18.09.2020 06:02 18,5 C 6,2 C 6,6 C 78 % 1023,7 hPa 0,0 l/m 0,0 km/h (0 Bft) W 270 3,0 C 6,6 C 0,0 km/h (0 Bft)
18.09.2020 06:00 18,5 C 6,1 C 6,7 C 78 % 1023,6 hPa 0,0 l/m 0,0 km/h (0 Bft) W 270 3,1 C 6,7 C 0,0 km/h (0 Bft)
18.09.2020 05:58 18,5 C 6,3 C 6,6 C 78 % 1023,6 hPa 0,0 l/m 0,0 km/h (0 Bft) W 270 3,0 C 6,6 C 0,0 km/h (0 Bft)
18.09.2020 05:56 18,5 C 6,5 C 6,6 C 78 % 1023,6 hPa 0,0 l/m 0,0 km/h (0 Bft) W 270 3,0 C 6,6 C 0,0 km/h (0 Bft)
18.09.2020 05:54 18,5 C 6,3 C 6,7 C 78 % 1023,6 hPa 0,0 l/m 0,0 km/h (0 Bft) W 270 3,1 C 6,7 C 0,0 km/h (0 Bft)
18.09.2020 05:52 18,5 C 6,7 C 6,7 C 78 % 1023,6 hPa 0,0 l/m 0,0 km/h (0 Bft) W 270 3,1 C 6,7 C 0,0 km/h (0 Bft)
18.09.2020 05:50 18,5 C 6,2 C 6,7 C 78 % 1023,6 hPa 0,0 l/m 0,0 km/h (0 Bft) W 270 3,1 C 6,7 C 0,0 km/h (0 Bft)
18.09.2020 05:48 18,6 C 6,3 C 6,7 C 78 % 1023,6 hPa 0,0 l/m 0,0 km/h (0 Bft) W 270 3,1 C 6,7 C 0,0 km/h (0 Bft)
18.09.2020 05:46 18,6 C 6,2 C 6,8 C 78 % 1023,6 hPa 0,0 l/m 0,0 km/h (0 Bft) W 270 3,2 C 6,8 C 0,0 km/h (0 Bft)
18.09.2020 05:44 18,6 C 6,2 C 6,8 C 78 % 1023,6 hPa 0,0 l/m 0,0 km/h (0 Bft) W 270 3,2 C 6,8 C 0,0 km/h (0 Bft)
18.09.2020 05:42 18,6 C 6,4 C 6,8 C 78 % 1023,6 hPa 0,0 l/m 0,0 km/h (0 Bft) W 270 3,2 C 6,8 C 0,0 km/h (0 Bft)
18.09.2020 05:40 18,6 C 6,4 C 6,9 C 78 % 1023,5 hPa 0,0 l/m 0,0 km/h (0 Bft) W 270 3,3 C 6,9 C 0,0 km/h (0 Bft)
18.09.2020 05:38 18,6 C 6,5 C 6,9 C 78 % 1023,5 hPa 0,0 l/m 0,0 km/h (0 Bft) W 270 3,3 C 6,9 C 0,0 km/h (0 Bft)
18.09.2020 05:36 18,6 C 6,5 C 6,9 C 78 % 1023,5 hPa 0,0 l/m 0,0 km/h (0 Bft) W 270 3,3 C 6,9 C 0,0 km/h (0 Bft)
18.09.2020 05:34 18,6 C 6,9 C 6,9 C 78 % 1023,5 hPa 0,0 l/m 0,0 km/h (0 Bft) W 270 3,3 C 6,9 C 0,0 km/h (0 Bft)
18.09.2020 05:32 18,6 C 6,7 C 7,1 C 77 % 1023,5 hPa 0,0 l/m 0,0 km/h (0 Bft) W 270 3,3 C 7,1 C 0,0 km/h (0 Bft)
18.09.2020 05:30 18,7 C 6,2 C 7,1 C 77 % 1023,5 hPa 0,0 l/m 0,0 km/h (0 Bft) W 270 3,3 C 7,1 C 0,0 km/h (0 Bft)
18.09.2020 05:28 18,7 C 6,3 C 7,2 C 77 % 1023,5 hPa 0,0 l/m 0,0 km/h (0 Bft) W 270 3,4 C 7,2 C 0,0 km/h (0 Bft)
18.09.2020 05:26 18,7 C 6,4 C 7,1 C 77 % 1023,5 hPa 0,0 l/m 0,0 km/h (0 Bft) W 270 3,3 C 7,1 C 0,0 km/h (0 Bft)
18.09.2020 05:24 18,6 C 6,8 C 7,1 C 77 % 1023,5 hPa 0,0 l/m 0,0 km/h (0 Bft) W 270 3,3 C 7,1 C 0,0 km/h (0 Bft)
18.09.2020 05:22 18,6 C 6,8 C 7,2 C 77 % 1023,5 hPa 0,0 l/m 0,0 km/h (0 Bft) W 270 3,4 C 7,2 C 0,0 km/h (0 Bft)
18.09.2020 05:20 18,6 C 6,8 C 7,2 C 77 % 1023,4 hPa 0,0 l/m 0,0 km/h (0 Bft) W 270 3,4 C 7,2 C 0,0 km/h (0 Bft)
18.09.2020 05:18 18,6 C 6,7 C 7,3 C 77 % 1023,4 hPa 0,0 l/m 0,0 km/h (0 Bft) W 270 3,5 C 7,3 C 0,0 km/h (0 Bft)
18.09.2020 05:16 18,6 C 6,6 C 7,2 C 77 % 1023,4 hPa 0,0 l/m 0,0 km/h (0 Bft) W 270 3,4 C 7,2 C 0,0 km/h (0 Bft)
18.09.2020 05:14 18,6 C 6,7 C 7,3 C 77 % 1023,4 hPa 0,0 l/m 0,0 km/h (0 Bft) W 270 3,5 C 7,3 C 0,0 km/h (0 Bft)
18.09.2020 05:12 18,7 C 6,4 C 7,3 C 77 % 1023,4 hPa 0,0 l/m 0,0 km/h (0 Bft) W 270 3,5 C 7,3 C 0,0 km/h (0 Bft)
18.09.2020 05:10 18,7 C 6,6 C 7,4 C 77 % 1023,4 hPa 0,0 l/m 0,0 km/h (0 Bft) W 270 3,6 C 7,4 C 0,0 km/h (0 Bft)
18.09.2020 05:08 18,7 C 6,5 C 7,2 C 77 % 1023,4 hPa 0,0 l/m 0,0 km/h (0 Bft) W 270 3,4 C 7,2 C 0,0 km/h (0 Bft)
18.09.2020 05:06 18,7 C 6,8 C 7,4 C 77 % 1023,4 hPa 0,0 l/m 0,0 km/h (0 Bft) W 270 3,6 C 7,4 C 0,0 km/h (0 Bft)
18.09.2020 05:04 18,7 C 6,9 C 7,4 C 77 % 1023,4 hPa 0,0 l/m 0,0 km/h (0 Bft) W 270 3,6 C 7,4 C 0,0 km/h (0 Bft)
18.09.2020 05:02 18,7 C 6,9 C 7,4 C 77 % 1023,4 hPa 0,0 l/m 0,0 km/h (0 Bft) W 270 3,6 C 7,4 C 0,0 km/h (0 Bft)
18.09.2020 05:00 18,7 C 6,6 C 7,5 C 77 % 1023,6 hPa 0,0 l/m 0,0 km/h (0 Bft) W 270 3,7 C 7,5 C 0,0 km/h (0 Bft)
18.09.2020 04:58 18,7 C 6,8 C 7,5 C 77 % 1023,6 hPa 0,0 l/m 0,0 km/h (0 Bft) W 270 3,7 C 7,5 C 0,0 km/h (0 Bft)
18.09.2020 04:56 18,7 C 6,7 C 7,6 C 77 % 1023,6 hPa 0,0 l/m 0,0 km/h (0 Bft) W 270 3,8 C 7,6 C 0,0 km/h (0 Bft)
18.09.2020 04:54 18,8 C 7,0 C 7,6 C 77 % 1023,6 hPa 0,0 l/m 0,0 km/h (0 Bft) W 270 3,8 C 7,6 C 0,0 km/h (0 Bft)
18.09.2020 04:52 18,8 C 6,9 C 7,7 C 77 % 1023,6 hPa 0,0 l/m 0,0 km/h (0 Bft) W 270 3,9 C 7,7 C 0,0 km/h (0 Bft)
18.09.2020 04:50 18,8 C 7,0 C 7,7 C 77 % 1023,6 hPa 0,0 l/m 0,0 km/h (0 Bft) W 270 3,9 C 7,7 C 0,0 km/h (0 Bft)
18.09.2020 04:48 18,8 C 7,3 C 7,7 C 77 % 1023,6 hPa 0,0 l/m 0,0 km/h (0 Bft) W 270 3,9 C 7,7 C 0,0 km/h (0 Bft)
18.09.2020 04:46 18,8 C 7,1 C 7,7 C 77 % 1023,6 hPa 0,0 l/m 0,0 km/h (0 Bft) W 270 3,9 C 7,7 C 0,0 km/h (0 Bft)
18.09.2020 04:44 18,8 C 6,7 C 7,7 C 77 % 1023,6 hPa 0,0 l/m 0,0 km/h (0 Bft) W 270 3,9 C 7,7 C 0,0 km/h (0 Bft)
18.09.2020 04:42 18,8 C 6,8 C 7,7 C 77 % 1023,6 hPa 0,0 l/m 0,0 km/h (0 Bft) W 270 3,9 C 7,7 C 0,0 km/h (0 Bft)
18.09.2020 04:40 18,8 C 7,1 C 7,8 C 77 % 1023,5 hPa 0,0 l/m 0,0 km/h (0 Bft) W 270 4,0 C 7,8 C 0,0 km/h (0 Bft)
18.09.2020 04:38 18,8 C 6,9 C 7,8 C 77 % 1023,5 hPa 0,0 l/m 0,0 km/h (0 Bft) W 270 4,0 C 7,8 C 0,0 km/h (0 Bft)
18.09.2020 04:36 18,9 C 7,2 C 7,9 C 77 % 1023,5 hPa 0,0 l/m 0,0 km/h (0 Bft) W 270 4,1 C 7,9 C 0,0 km/h (0 Bft)
18.09.2020 04:34 18,9 C 7,2 C 7,9 C 77 % 1023,5 hPa 0,0 l/m 0,0 km/h (0 Bft) W 270 4,1 C 7,9 C 0,0 km/h (0 Bft)
18.09.2020 04:32 18,9 C 7,1 C 8,0 C 77 % 1023,5 hPa 0,0 l/m 0,0 km/h (0 Bft) W 270 4,2 C 8,0 C 0,0 km/h (0 Bft)
18.09.2020 04:30 18,9 C 7,3 C 8,0 C 77 % 1023,5 hPa 0,0 l/m 0,0 km/h (0 Bft) W 270 4,2 C 8,0 C 0,0 km/h (0 Bft)
18.09.2020 04:28 18,9 C 7,1 C 8,0 C 77 % 1023,5 hPa 0,0 l/m 0,0 km/h (0 Bft) W 270 4,2 C 8,0 C 0,0 km/h (0 Bft)
18.09.2020 04:26 18,9 C 7,4 C 8,1 C 77 % 1023,5 hPa 0,0 l/m 0,0 km/h (0 Bft) W 270 4,3 C 8,1 C 0,0 km/h (0 Bft)
18.09.2020 04:24 18,9 C 7,4 C 8,1 C 77 % 1023,5 hPa 0,0 l/m 0,0 km/h (0 Bft) W 270 4,3 C 8,1 C 0,0 km/h (0 Bft)
18.09.2020 04:22 18,9 C 7,7 C 8,2 C 77 % 1023,5 hPa 0,0 l/m 0,0 km/h (0 Bft) W 270 4,4 C 8,2 C 0,0 km/h (0 Bft)
18.09.2020 04:20 18,9 C 7,7 C 8,2 C 77 % 1023,5 hPa 0,0 l/m 0,0 km/h (0 Bft) W 270 4,4 C 8,2 C 0,0 km/h (0 Bft)
18.09.2020 04:18 19,0 C 7,6 C 8,3 C 76 % 1023,5 hPa 0,0 l/m 0,0 km/h (0 Bft) W 270 4,3 C 8,3 C 0,0 km/h (0 Bft)
18.09.2020 04:16 19,0 C 8,0 C 8,4 C 76 % 1023,5 hPa 0,0 l/m 0,0 km/h (0 Bft) W 270 4,4 C 8,4 C 0,0 km/h (0 Bft)
18.09.2020 04:14 19,0 C 7,9 C 8,3 C 76 % 1023,5 hPa 0,0 l/m 0,0 km/h (0 Bft) W 270 4,3 C 8,3 C 0,0 km/h (0 Bft)
18.09.2020 04:12 19,0 C 7,5 C 8,3 C 76 % 1023,5 hPa 0,0 l/m 0,0 km/h (0 Bft) W 270 4,3 C 8,3 C 0,0 km/h (0 Bft)
18.09.2020 04:10 19,0 C 8,0 C 8,3 C 76 % 1023,5 hPa 0,0 l/m 0,0 km/h (0 Bft) NW 315 4,3 C 8,3 C 0,0 km/h (0 Bft)
18.09.2020 04:08 19,0 C 7,3 C 8,3 C 76 % 1023,5 hPa 0,0 l/m 0,0 km/h (0 Bft) NW 315 4,3 C 8,3 C 0,0 km/h (0 Bft)
18.09.2020 04:06 19,0 C 7,4 C 8,3 C 76 % 1023,5 hPa 0,0 l/m 0,0 km/h (0 Bft) NW 315 4,3 C 8,3 C 0,0 km/h (0 Bft)
18.09.2020 04:04 19,0 C 7,1 C 8,3 C 76 % 1023,5 hPa 0,0 l/m 0,0 km/h (0 Bft) NW 315 4,3 C 8,3 C 0,0 km/h (0 Bft)
18.09.2020 04:02 19,0 C 7,2 C 8,4 C 76 % 1023,5 hPa 0,0 l/m 0,0 km/h (0 Bft) NW 315 4,4 C 8,4 C 0,0 km/h (0 Bft)
18.09.2020 04:00 19,0 C 7,4 C 8,4 C 76 % 1023,6 hPa 0,0 l/m 0,0 km/h (0 Bft) NW 315 4,4 C 8,4 C 0,0 km/h (0 Bft)
18.09.2020 03:58 19,1 C 7,8 C 8,5 C 76 % 1023,6 hPa 0,0 l/m 0,0 km/h (0 Bft) NW 315 4,5 C 8,5 C 0,0 km/h (0 Bft)
18.09.2020 03:56 19,1 C 7,9 C 8,5 C 76 % 1023,6 hPa 0,0 l/m 0,0 km/h (0 Bft) NW 315 4,5 C 8,5 C 0,0 km/h (0 Bft)
18.09.2020 03:54 19,1 C 7,7 C 8,5 C 76 % 1023,6 hPa 0,0 l/m 0,0 km/h (0 Bft) NW 315 4,5 C 8,5 C 0,0 km/h (0 Bft)
18.09.2020 03:52 19,1 C 8,0 C 8,5 C 76 % 1023,6 hPa 0,0 l/m 0,0 km/h (0 Bft) NW 315 4,5 C 8,5 C 0,0 km/h (0 Bft)
18.09.2020 03:50 19,1 C 8,1 C 8,5 C 75 % 1023,6 hPa 0,0 l/m 0,0 km/h (0 Bft) NW 315 4,3 C 8,5 C 0,0 km/h (0 Bft)
18.09.2020 03:48 19,1 C 8,2 C 8,5 C 75 % 1023,6 hPa 0,0 l/m 0,0 km/h (0 Bft) NW 315 4,3 C 8,5 C 0,0 km/h (0 Bft)
18.09.2020 03:46 19,1 C 8,0 C 8,7 C 75 % 1023,6 hPa 0,0 l/m 0,0 km/h (0 Bft) NW 315 4,5 C 8,7 C 0,0 km/h (0 Bft)
18.09.2020 03:44 19,1 C 7,9 C 8,7 C 75 % 1023,6 hPa 0,0 l/m 0,0 km/h (0 Bft) NW 315 4,5 C 8,7 C 0,0 km/h (0 Bft)
18.09.2020 03:42 19,1 C 7,6 C 8,6 C 75 % 1023,6 hPa 0,0 l/m 0,0 km/h (0 Bft) NW 315 4,4 C 8,6 C 0,0 km/h (0 Bft)
18.09.2020 03:40 19,1 C 7,7 C 8,7 C 75 % 1023,9 hPa 0,0 l/m 0,0 km/h (0 Bft) NW 315 4,5 C 8,7 C 0,0 km/h (0 Bft)
18.09.2020 03:38 19,2 C 8,1 C 8,7 C 75 % 1023,9 hPa 0,0 l/m 0,0 km/h (0 Bft) NW 315 4,5 C 8,7 C 0,0 km/h (0 Bft)
18.09.2020 03:36 19,2 C 7,7 C 8,7 C 75 % 1023,9 hPa 0,0 l/m 0,0 km/h (0 Bft) NW 315 4,5 C 8,7 C 0,0 km/h (0 Bft)
18.09.2020 03:34 19,2 C 7,6 C 8,8 C 75 % 1023,9 hPa 0,0 l/m 0,0 km/h (0 Bft) NW 315 4,6 C 8,8 C 0,0 km/h (0 Bft)
18.09.2020 03:32 19,2 C 7,8 C 8,8 C 75 % 1023,9 hPa 0,0 l/m 0,0 km/h (0 Bft) NW 315 4,6 C 8,8 C 0,0 km/h (0 Bft)
18.09.2020 03:30 19,2 C 7,7 C 8,9 C 75 % 1023,9 hPa 0,0 l/m 0,0 km/h (0 Bft) NW 315 4,7 C 8,9 C 0,0 km/h (0 Bft)
18.09.2020 03:28 19,2 C 7,7 C 8,9 C 75 % 1023,9 hPa 0,0 l/m 0,0 km/h (0 Bft) NW 315 4,7 C 8,9 C 0,0 km/h (0 Bft)
18.09.2020 03:26 19,2 C 7,7 C 9,0 C 75 % 1023,9 hPa 0,0 l/m 0,0 km/h (0 Bft) NW 315 4,8 C 9,0 C 0,0 km/h (0 Bft)
18.09.2020 03:24 19,2 C 8,0 C 9,2 C 75 % 1023,9 hPa 0,0 l/m 0,0 km/h (0 Bft) NW 315 5,0 C 9,2 C 0,0 km/h (0 Bft)
18.09.2020 03:22 19,2 C 8,1 C 9,2 C 75 % 1023,9 hPa 0,0 l/m 0,0 km/h (0 Bft) NW 315 5,0 C 9,2 C 0,0 km/h (0 Bft)
18.09.2020 03:20 19,2 C 7,9 C 9,2 C 75 % 1023,8 hPa 0,0 l/m 0,0 km/h (0 Bft) NW 315 5,0 C 9,2 C 0,0 km/h (0 Bft)
18.09.2020 03:18 19,2 C 8,1 C 9,3 C 75 % 1023,8 hPa 0,0 l/m 0,0 km/h (0 Bft) NW 315 5,1 C 9,3 C 0,0 km/h (0 Bft)
18.09.2020 03:16 19,2 C 8,1 C 9,3 C 74 % 1023,8 hPa 0,0 l/m 0,0 km/h (0 Bft) NW 315 4,9 C 9,3 C 0,0 km/h (0 Bft)
18.09.2020 03:14 19,2 C 8,2 C 9,4 C 74 % 1023,8 hPa 0,0 l/m 0,0 km/h (0 Bft) NW 315 5,0 C 9,4 C 0,0 km/h (0 Bft)
18.09.2020 03:12 19,3 C 8,3 C 9,6 C 74 % 1023,8 hPa 0,0 l/m 0,0 km/h (0 Bft) NW 315 5,2 C 9,6 C 0,0 km/h (0 Bft)
18.09.2020 03:10 19,3 C 8,5 C 9,6 C 74 % 1023,8 hPa 0,0 l/m 0,0 km/h (0 Bft) NW 315 5,2 C 9,6 C 0,0 km/h (0 Bft)
18.09.2020 03:08 19,3 C 8,5 C 9,6 C 74 % 1023,8 hPa 0,0 l/m 0,0 km/h (0 Bft) NW 315 5,2 C 9,6 C 0,0 km/h (0 Bft)
18.09.2020 03:06 19,3 C 8,5 C 9,6 C 74 % 1023,8 hPa 0,0 l/m 0,0 km/h (0 Bft) NW 315 5,2 C 9,6 C 0,0 km/h (0 Bft)
18.09.2020 03:04 19,3 C 8,5 C 9,6 C 74 % 1023,8 hPa 0,0 l/m 0,0 km/h (0 Bft) NW 315 5,2 C 9,6 C 0,0 km/h (0 Bft)
18.09.2020 03:02 19,3 C 8,5 C 9,6 C 74 % 1023,8 hPa 0,0 l/m 0,0 km/h (0 Bft) NW 315 5,2 C 9,6 C 0,0 km/h (0 Bft)
18.09.2020 03:00 19,3 C 8,9 C 9,6 C 74 % 1023,8 hPa 0,0 l/m 0,0 km/h (0 Bft) NW 315 5,2 C 9,6 C 0,0 km/h (0 Bft)
18.09.2020 02:58 19,3 C 8,7 C 9,6 C 74 % 1023,8 hPa 0,0 l/m 0,0 km/h (0 Bft) NW 315 5,2 C 9,6 C 0,0 km/h (0 Bft)
18.09.2020 02:56 19,3 C 8,4 C 9,6 C 74 % 1023,8 hPa 0,0 l/m 0,0 km/h (0 Bft) NW 315 5,2 C 9,6 C 0,0 km/h (0 Bft)
18.09.2020 02:54 19,3 C 8,6 C 9,7 C 74 % 1023,8 hPa 0,0 l/m 0,0 km/h (0 Bft) NW 315 5,3 C 9,7 C 0,0 km/h (0 Bft)
18.09.2020 02:52 19,4 C 8,6 C 9,7 C 74 % 1023,8 hPa 0,0 l/m 0,0 km/h (0 Bft) NW 315 5,3 C 9,7 C 0,0 km/h (0 Bft)
18.09.2020 02:50 19,3 C 8,8 C 9,8 C 74 % 1023,8 hPa 0,0 l/m 0,0 km/h (0 Bft) NW 315 5,4 C 9,8 C 0,0 km/h (0 Bft)
18.09.2020 02:48 19,3 C 8,6 C 9,8 C 74 % 1023,8 hPa 0,0 l/m 0,0 km/h (0 Bft) NW 315 5,4 C 9,8 C 0,0 km/h (0 Bft)
18.09.2020 02:46 19,3 C 9,0 C 9,9 C 74 % 1023,8 hPa 0,0 l/m 0,0 km/h (0 Bft) NW 315 5,5 C 9,9 C 0,0 km/h (0 Bft)
18.09.2020 02:44 19,3 C 8,8 C 9,9 C 74 % 1023,8 hPa 0,0 l/m 0,0 km/h (0 Bft) NW 315 5,5 C 9,9 C 0,0 km/h (0 Bft)
18.09.2020 02:42 19,3 C 8,7 C 9,9 C 73 % 1023,8 hPa 0,0 l/m 0,0 km/h (0 Bft) NW 315 5,3 C 9,9 C 0,0 km/h (0 Bft)
18.09.2020 02:40 19,3 C 8,9 C 9,9 C 73 % 1023,8 hPa 0,0 l/m 0,0 km/h (0 Bft) NW 315 5,3 C 9,9 C 0,0 km/h (0 Bft)
18.09.2020 02:38 19,3 C 8,7 C 9,9 C 73 % 1023,8 hPa 0,0 l/m 0,0 km/h (0 Bft) NW 315 5,3 C 9,9 C 0,0 km/h (0 Bft)
18.09.2020 02:36 19,3 C 8,9 C 10,0 C 73 % 1023,8 hPa 0,0 l/m 0,0 km/h (0 Bft) NW 315 5,4 C 10,0 C 0,0 km/h (0 Bft)
18.09.2020 02:34 19,3 C 8,9 C 10,1 C 73 % 1023,8 hPa 0,0 l/m 0,0 km/h (0 Bft) NW 315 5,5 C 10,1 C 0,0 km/h (0 Bft)
18.09.2020 02:32 19,3 C 8,5 C 10,1 C 73 % 1023,8 hPa 0,0 l/m 0,0 km/h (0 Bft) NW 315 5,5 C 10,1 C 0,0 km/h (0 Bft)
18.09.2020 02:30 19,3 C 8,6 C 10,2 C 73 % 1023,8 hPa 0,0 l/m 0,0 km/h (0 Bft) NW 315 5,6 C 10,2 C 0,0 km/h (0 Bft)
18.09.2020 02:28 19,3 C 8,8 C 10,3 C 73 % 1023,8 hPa 0,0 l/m 0,0 km/h (0 Bft) NW 315 5,7 C 10,3 C 0,0 km/h (0 Bft)
18.09.2020 02:26 19,3 C 8,9 C 10,3 C 73 % 1023,8 hPa 0,0 l/m 0,0 km/h (0 Bft) NW 315 5,7 C 10,3 C 0,0 km/h (0 Bft)
18.09.2020 02:24 19,4 C 9,1 C 10,4 C 73 % 1023,8 hPa 0,0 l/m 0,2 km/h (0 Bft) NW 315 5,8 C 10,4 C 0,0 km/h (0 Bft)
18.09.2020 02:22 19,4 C 9,1 C 10,5 C 73 % 1023,8 hPa 0,0 l/m 0,2 km/h (0 Bft) NW 315 5,9 C 10,5 C 0,0 km/h (0 Bft)
18.09.2020 02:20 19,4 C 9,2 C 10,5 C 73 % 1023,9 hPa 0,0 l/m 0,2 km/h (0 Bft) NW 315 5,9 C 10,5 C 0,0 km/h (0 Bft)
18.09.2020 02:18 19,4 C 9,6 C 10,6 C 73 % 1023,9 hPa 0,0 l/m 0,5 km/h (0 Bft) NW 315 6,0 C 10,6 C 0,0 km/h (0 Bft)
18.09.2020 02:16 19,4 C 9,3 C 10,6 C 73 % 1023,9 hPa 0,0 l/m 0,5 km/h (0 Bft) N 360 6,0 C 10,6 C 3,6 km/h (1 Bft)
18.09.2020 02:14 19,4 C 9,3 C 10,6 C 73 % 1023,9 hPa 0,0 l/m 0,5 km/h (0 Bft) NW 315 6,0 C 10,6 C 3,6 km/h (1 Bft)
18.09.2020 02:12 19,4 C 9,4 C 10,7 C 73 % 1023,9 hPa 0,0 l/m 0,5 km/h (0 Bft) W-NW 292 6,1 C 10,7 C 2,9 km/h (1 Bft)
18.09.2020 02:10 19,4 C 9,5 C 10,7 C 73 % 1023,9 hPa 0,0 l/m 0,5 km/h (0 Bft) NW 315 6,1 C 10,7 C 2,7 km/h (1 Bft)
18.09.2020 02:08 19,5 C 9,6 C 10,8 C 73 % 1023,9 hPa 0,0 l/m 0,5 km/h (0 Bft) N-NO 22 6,2 C 10,8 C 2,7 km/h (1 Bft)
18.09.2020 02:06 19,5 C 9,7 C 10,8 C 73 % 1023,9 hPa 0,0 l/m 0,2 km/h (0 Bft) N-NW 337 6,2 C 10,8 C 0,0 km/h (0 Bft)
18.09.2020 02:04 19,5 C 9,4 C 10,8 C 73 % 1023,9 hPa 0,0 l/m 0,0 km/h (0 Bft) W-NW 292 6,2 C 10,8 C 0,0 km/h (0 Bft)
18.09.2020 02:02 19,5 C 9,4 C 10,9 C 73 % 1023,9 hPa 0,0 l/m 0,0 km/h (0 Bft) N-NW 337 6,3 C 10,9 C 0,0 km/h (0 Bft)
18.09.2020 02:00 19,5 C 9,6 C 10,9 C 73 % 1023,9 hPa 0,0 l/m 0,0 km/h (0 Bft) W-NW 292 6,3 C 10,9 C 0,0 km/h (0 Bft)
18.09.2020 01:58 19,5 C 9,6 C 11,0 C 73 % 1023,9 hPa 0,0 l/m 0,0 km/h (0 Bft) NW 315 6,4 C 11,0 C 0,0 km/h (0 Bft)
18.09.2020 01:56 19,5 C 9,5 C 11,0 C 73 % 1023,9 hPa 0,0 l/m 0,0 km/h (0 Bft) W-SW 247 6,4 C 11,0 C 0,0 km/h (0 Bft)
18.09.2020 01:54 19,5 C 9,7 C 11,1 C 73 % 1023,9 hPa 0,0 l/m 0,0 km/h (0 Bft) W-NW 292 6,4 C 11,1 C 0,0 km/h (0 Bft)
18.09.2020 01:52 19,5 C 9,8 C 11,1 C 73 % 1023,9 hPa 0,0 l/m 0,0 km/h (0 Bft) N-NW 337 6,4 C 11,1 C 0,0 km/h (0 Bft)
18.09.2020 01:50 19,6 C 9,9 C 11,1 C 73 % 1023,9 hPa 0,0 l/m 0,0 km/h (0 Bft) N-NW 337 6,4 C 11,1 C 0,0 km/h (0 Bft)
18.09.2020 01:48 19,6 C 9,5 C 11,2 C 73 % 1023,9 hPa 0,0 l/m 0,0 km/h (0 Bft) N 360 6,5 C 11,2 C 0,0 km/h (0 Bft)
18.09.2020 01:46 19,6 C 9,5 C 11,2 C 73 % 1023,9 hPa 0,0 l/m 0,0 km/h (0 Bft) W-NW 292 6,5 C 11,2 C 0,0 km/h (0 Bft)
18.09.2020 01:44 19,6 C 9,6 C 11,3 C 73 % 1023,9 hPa 0,0 l/m 0,0 km/h (0 Bft) W-NW 292 6,6 C 11,3 C 0,0 km/h (0 Bft)
18.09.2020 01:42 19,6 C 9,6 C 11,3 C 73 % 1023,9 hPa 0,0 l/m 0,0 km/h (0 Bft) NW 315 6,6 C 11,3 C 0,0 km/h (0 Bft)
18.09.2020 01:40 19,6 C 9,6 C 11,4 C 73 % 1023,8 hPa 0,0 l/m 0,0 km/h (0 Bft) N 360 6,7 C 11,4 C 0,0 km/h (0 Bft)
18.09.2020 01:38 19,6 C 9,7 C 11,4 C 72 % 1023,8 hPa 0,0 l/m 0,0 km/h (0 Bft) NW 315 6,5 C 11,4 C 0,0 km/h (0 Bft)
18.09.2020 01:36 19,6 C 9,6 C 11,4 C 72 % 1023,8 hPa 0,0 l/m 0,0 km/h (0 Bft) W-NW 292 6,5 C 11,4 C 0,0 km/h (0 Bft)
18.09.2020 01:34 19,7 C 9,7 C 11,6 C 72 % 1023,8 hPa 0,0 l/m 0,0 km/h (0 Bft) NW 315 6,7 C 11,6 C 0,0 km/h (0 Bft)
18.09.2020 01:32 19,7 C 9,7 C 11,6 C 72 % 1023,8 hPa 0,0 l/m 0,0 km/h (0 Bft) W 270 6,7 C 11,6 C 0,0 km/h (0 Bft)
18.09.2020 01:30 19,7 C 9,6 C 11,7 C 72 % 1023,8 hPa 0,0 l/m 0,0 km/h (0 Bft) NW 315 6,8 C 11,7 C 0,0 km/h (0 Bft)
18.09.2020 01:28 19,7 C 9,7 C 11,8 C 72 % 1023,8 hPa 0,0 l/m 0,0 km/h (0 Bft) W-NW 292 6,9 C 11,8 C 0,0 km/h (0 Bft)
18.09.2020 01:26 19,7 C 9,8 C 11,8 C 72 % 1023,8 hPa 0,0 l/m 0,0 km/h (0 Bft) W 270 6,9 C 11,8 C 0,0 km/h (0 Bft)
18.09.2020 01:24 19,7 C 10,2 C 11,9 C 72 % 1023,8 hPa 0,0 l/m 0,0 km/h (0 Bft) W 270 7,0 C 11,9 C 0,0 km/h (0 Bft)
18.09.2020 01:22 19,7 C 10,0 C 11,9 C 72 % 1023,8 hPa 0,0 l/m 0,0 km/h (0 Bft) W 270 7,0 C 11,9 C 0,0 km/h (0 Bft)
18.09.2020 01:20 19,7 C 10,2 C 12,0 C 72 % 1023,7 hPa 0,0 l/m 0,0 km/h (0 Bft) W 270 7,1 C 12,0 C 0,0 km/h (0 Bft)
18.09.2020 01:18 19,7 C 10,3 C 12,0 C 72 % 1023,7 hPa 0,0 l/m 0,0 km/h (0 Bft) W 270 7,1 C 12,0 C 0,0 km/h (0 Bft)
18.09.2020 01:16 19,7 C 10,4 C 12,1 C 72 % 1023,7 hPa 0,0 l/m 0,0 km/h (0 Bft) W 270 7,2 C 12,1 C 0,0 km/h (0 Bft)
18.09.2020 01:14 19,7 C 10,6 C 12,2 C 72 % 1023,7 hPa 0,0 l/m 0,0 km/h (0 Bft) NW 315 7,3 C 12,2 C 0,0 km/h (0 Bft)
18.09.2020 01:12 19,7 C 10,7 C 12,2 C 72 % 1023,7 hPa 0,0 l/m 0,0 km/h (0 Bft) W 270 7,3 C 12,2 C 0,0 km/h (0 Bft)
18.09.2020 01:10 19,8 C 11,0 C 12,3 C 72 % 1023,7 hPa 0,0 l/m 0,0 km/h (0 Bft) N-NW 337 7,4 C 12,3 C 0,0 km/h (0 Bft)
18.09.2020 01:08 19,8 C 10,7 C 12,3 C 72 % 1023,7 hPa 0,0 l/m 0,0 km/h (0 Bft) N 360 7,4 C 12,3 C 0,0 km/h (0 Bft)
18.09.2020 01:06 19,8 C 10,8 C 12,4 C 72 % 1023,7 hPa 0,0 l/m 0,2 km/h (0 Bft) W-NW 292 7,5 C 12,4 C 0,0 km/h (0 Bft)
18.09.2020 01:04 19,8 C 10,8 C 12,5 C 72 % 1023,7 hPa 0,0 l/m 0,2 km/h (0 Bft) W-NW 292 7,6 C 12,5 C 0,0 km/h (0 Bft)
18.09.2020 01:02 19,8 C 10,8 C 12,5 C 71 % 1023,7 hPa 0,0 l/m 0,2 km/h (0 Bft) N-NW 337 7,4 C 12,5 C 0,0 km/h (0 Bft)
18.09.2020 01:00 19,7 C 10,8 C 12,6 C 71 % 1023,7 hPa 0,0 l/m 0,2 km/h (0 Bft) N-NW 337 7,5 C 12,6 C 0,0 km/h (0 Bft)
18.09.2020 00:58 19,7 C 10,7 C 12,6 C 71 % 1023,7 hPa 0,0 l/m 0,2 km/h (0 Bft) N-NW 337 7,5 C 12,6 C 3,1 km/h (1 Bft)
18.09.2020 00:56 19,7 C 10,9 C 12,7 C 71 % 1023,7 hPa 0,0 l/m 0,5 km/h (0 Bft) W 270 7,6 C 12,7 C 7,2 km/h (2 Bft)
18.09.2020 00:54 19,7 C 11,1 C 12,7 C 71 % 1023,7 hPa 0,0 l/m 0,5 km/h (0 Bft) NO 45 7,6 C 12,7 C 0,0 km/h (0 Bft)
18.09.2020 00:52 19,7 C 11,1 C 12,7 C 71 % 1023,7 hPa 0,0 l/m 0,5 km/h (0 Bft) NW 315 7,6 C 12,7 C 0,0 km/h (0 Bft)
18.09.2020 00:50 19,7 C 11,1 C 12,8 C 71 % 1023,7 hPa 0,0 l/m 0,5 km/h (0 Bft) NW 315 7,7 C 12,8 C 0,0 km/h (0 Bft)
18.09.2020 00:48 19,8 C 11,5 C 12,9 C 70 % 1023,7 hPa 0,0 l/m 0,5 km/h (0 Bft) N-NO 22 7,6 C 12,9 C 2,7 km/h (1 Bft)
18.09.2020 00:46 19,8 C 11,4 C 12,9 C 70 % 1023,7 hPa 0,0 l/m 0,2 km/h (0 Bft) N-NW 337 7,6 C 12,9 C 2,7 km/h (1 Bft)
18.09.2020 00:44 19,8 C 11,6 C 13,0 C 70 % 1023,7 hPa 0,0 l/m 0,2 km/h (0 Bft) N-NW 337 7,7 C 13,0 C 0,0 km/h (0 Bft)
18.09.2020 00:42 19,8 C 12,0 C 13,0 C 70 % 1023,7 hPa 0,0 l/m 0,2 km/h (0 Bft) O-NO 67 7,7 C 13,0 C 0,0 km/h (0 Bft)
18.09.2020 00:40 19,8 C 12,2 C 13,1 C 70 % 1023,6 hPa 0,0 l/m 0,2 km/h (0 Bft) O-NO 67 7,8 C 13,1 C 0,0 km/h (0 Bft)
18.09.2020 00:38 19,8 C 12,2 C 13,1 C 70 % 1023,6 hPa 0,0 l/m 0,2 km/h (0 Bft) N-NW 337 7,8 C 13,1 C 0,0 km/h (0 Bft)
18.09.2020 00:36 19,8 C 12,5 C 13,2 C 70 % 1023,6 hPa 0,0 l/m 0,2 km/h (0 Bft) NW 315 7,9 C 13,2 C 0,0 km/h (0 Bft)
18.09.2020 00:34 19,8 C 12,5 C 13,2 C 70 % 1023,6 hPa 0,0 l/m 0,0 km/h (0 Bft) N-NW 337 7,9 C 13,2 C 0,0 km/h (0 Bft)
18.09.2020 00:32 19,8 C 12,5 C 13,2 C 70 % 1023,6 hPa 0,0 l/m 0,0 km/h (0 Bft) NW 315 7,9 C 13,2 C 0,0 km/h (0 Bft)
18.09.2020 00:30 19,8 C 12,4 C 13,3 C 70 % 1023,6 hPa 0,0 l/m 0,0 km/h (0 Bft) NW 315 7,9 C 13,3 C 0,0 km/h (0 Bft)
18.09.2020 00:28 19,9 C 12,4 C 13,3 C 70 % 1023,6 hPa 0,0 l/m 0,0 km/h (0 Bft) NW 315 7,9 C 13,3 C 0,0 km/h (0 Bft)
18.09.2020 00:26 19,9 C 12,4 C 13,3 C 70 % 1023,6 hPa 0,0 l/m 0,2 km/h (0 Bft) NW 315 7,9 C 13,3 C 0,0 km/h (0 Bft)
18.09.2020 00:24 19,9 C 12,5 C 13,4 C 70 % 1023,6 hPa 0,0 l/m 0,2 km/h (0 Bft) N-NO 22 8,0 C 13,4 C 0,0 km/h (0 Bft)
18.09.2020 00:22 19,9 C 12,6 C 13,5 C 70 % 1023,6 hPa 0,0 l/m 0,5 km/h (0 Bft) NW 315 8,1 C 13,5 C 0,0 km/h (0 Bft)
18.09.2020 00:20 19,9 C 12,6 C 13,5 C 70 % 1023,7 hPa 0,0 l/m 0,5 km/h (0 Bft) NW 315 8,1 C 13,5 C 0,0 km/h (0 Bft)
18.09.2020 00:18 19,9 C 12,8 C 13,6 C 70 % 1023,7 hPa 0,0 l/m 1,0 km/h (0 Bft) N-NO 22 8,2 C 13,6 C 4,3 km/h (1 Bft)
18.09.2020 00:16 19,9 C 12,7 C 13,6 C 70 % 1023,7 hPa 0,0 l/m 1,2 km/h (1 Bft) N-NO 22 8,2 C 13,6 C 4,3 km/h (1 Bft)
18.09.2020 00:14 19,9 C 12,5 C 13,7 C 70 % 1023,7 hPa 0,0 l/m 0,7 km/h (0 Bft) O-NO 67 8,3 C 13,7 C 0,0 km/h (0 Bft)
18.09.2020 00:12 19,9 C 12,3 C 13,8 C 70 % 1023,7 hPa 0,0 l/m 0,7 km/h (0 Bft) N-NO 22 8,4 C 13,8 C 0,0 km/h (0 Bft)
18.09.2020 00:10 20,0 C 11,9 C 14,1 C 68 % 1023,7 hPa 0,0 l/m 0,0 km/h (0 Bft) NW 315 8,3 C 14,1 C 0,0 km/h (0 Bft)
18.09.2020 00:08 20,0 C 11,9 C 14,1 C 68 % 1023,7 hPa 0,0 l/m 0,0 km/h (0 Bft) NW 315 8,3 C 14,1 C 0,0 km/h (0 Bft)
18.09.2020 00:06 20,0 C 11,9 C 14,1 C 68 % 1023,7 hPa 0,0 l/m 0,0 km/h (0 Bft) NW 315 8,3 C 14,1 C 0,0 km/h (0 Bft)
18.09.2020 00:04 20,0 C 11,9 C 14,1 C 68 % 1023,7 hPa 0,0 l/m 0,0 km/h (0 Bft) NW 315 8,3 C 14,1 C 0,0 km/h (0 Bft)
18.09.2020 00:02 20,0 C 11,9 C 14,1 C 68 % 1023,7 hPa 0,0 l/m 0,0 km/h (0 Bft) NW 315 8,3 C 14,1 C 0,0 km/h (0 Bft)
18.09.2020 00:00 20,0 C 12,0 C 14,2 C 68 % 1023,7 hPa 0,0 l/m 0,0 km/h (0 Bft) NW 315 8,4 C 14,2 C 0,0 km/h (0 Bft)
_ Min-Zeit 10:18 06:34 06:42 16:16 17:42 - 00:00 - - 06:28 06:42 00:00
Minimum _ 17,3 C 6,0 C 6,3 C 45 % 1021,9 hPa - 0,0 km/h (0 Bft) - - 2,8 C 6,3 C 0,0 km/h (0 Bft)
_ Max-Zeit 00:00 15:36 15:34 08:20 10:42 00:00 10:26 - - 12:20 15:34 10:36
Maximum _ 20,0 C 24,4 C 20,4 C 82 % 1024,6 hPa 0,0 l/m 5,3 km/h
N-NW (1 Bft)
- - 10,1 C 20,4 C 14,5 km/h
N-NO (3 Bft)
Durchschnitt _ 18,8 C 13,2 C 13,7 C 65 % 1023,4 hPa #0,0 l/m 1,0 km/h (0 Bft) O-NO - 6,9 C 13,7 C 2,4 km/h (1 Bft)